GFSNGP_850_dewp_114.txt.gz
Dewpoint
3 3 2 2 4 4 3 3 2 2 0 -0 -1 -2 -2 -3 -5 -5 -5 -5 -5 -5 -4 -3 -2 -1 -1 -0 0 1 1 2 3 4 5 7 8 9 9 9 9 10 10 11
5 4 4 1 1 0 2 3 1 0 -1 -1 -2 -3 -3 -4 -5 -5 -5 -6 -6 -6 -5 -5 -4 -3 -2 -1 -1 -0 0 1 1 2 3 4 5 6 7 8 9 9 9 9
5 2 1 0 1 1 -0 1 2 0 -1 -2 -3 -4 -4 -4 -5 -6 -6 -6 -6 -6 -6 -6 -5 -4 -2 -2 -1 -1 -1 -0 0 0 1 1 2 3 4 5 5 6 6 8
5 4 3 1 -1 -1 -1 -1 -0 -2 -2 -4 -4 -4 -5 -5 -6 -7 -7 -7 -6 -6 -6 -6 -6 -5 -4 -3 -2 -2 -2 -1 -1 -0 0 0 1 1 1 2 3 3 4 4
5 3 2 1 -1 -1 0 -0 -2 -0 -1 -2 -3 -3 -5 -5 -6 -7 -7 -7 -7 -6 -6 -6 -6 -7 -6 -4 -4 -3 -2 -2 -2 -1 -1 -1 -0 -0 0 1 1 1 1 2
3 3 3 -1 -3 -1 -2 0 -3 -3 -4 -3 -2 -3 -6 -7 -7 -7 -8 -8 -7 -7 -7 -7 -7 -7 -7 -7 -6 -5 -4 -4 -3 -2 -2 -1 -1 -1 -1 -0 -0 -0 0 1
3 2 1 -2 -2 -0 1 -0 -3 -4 -4 -5 -5 -5 -7 -7 -7 -8 -8 -8 -8 -7 -7 -7 -7 -7 -7 -7 -8 -8 -7 -5 -4 -4 -3 -3 -2 -2 -2 -1 -1 -1 -1 -2
2 1 1 -2 -1 -1 -1 -2 -3 -4 -4 -5 -6 -6 -7 -7 -8 -8 -9 -9 -8 -8 -8 -8 -8 -8 -8 -8 -7 -8 -8 -8 -7 -5 -5 -4 -4 -3 -3 -3 -3 -3 -3 -3
-0 -1 -2 -2 -2 -2 -2 -2 -3 -4 -4 -6 -7 -7 -7 -7 -8 -9 -9 -9 -9 -9 -9 -8 -8 -8 -8 -8 -8 -8 -8 -8 -9 -8 -7 -6 -5 -5 -5 -5 -5 -5 -5 -5
-2 -2 -2 -3 -3 -3 -3 -2 -3 -4 -4 -5 -7 -7 -7 -8 -8 -9 -9 -9 -9 -9 -9 -9 -9 -9 -9 -9 -9 -9 -9 -9 -9 -9 -9 -8 -8 -7 -7 -7 -7 -7 -7 -7
-2 -2 -3 -4 -4 -4 -5 -5 -4 -4 -5 -6 -6 -7 -8 -8 -9 -10 -10 -10 -10 -10 -10 -10 -10 -10 -10 -10 -10 -10 -10 -9 -9 -9 -10 -9 -9 -8 -8 -8 -8 -8 -8 -8
-1 -3 -3 -4 -5 -4 -5 -6 -7 -7 -7 -7 -8 -8 -9 -9 -10 -10 -11 -11 -12 -12 -11 -10 -10 -10 -10 -11 -11 -11 -10 -10 -10 -10 -10 -10 -10 -10 -9 -9 -9 -9 -9 -9
-2 -2 -4 -5 -5 -7 -8 -8 -8 -9 -9 -10 -10 -10 -10 -10 -10 -11 -11 -13 -14 -14 -15 -15 -13 -12 -12 -12 -14 -15 -15 -13 -12 -12 -11 -11 -11 -11 -11 -11 -11 -10 -10 -10
-4 -4 -4 -4 -6 -8 -8 -8 -8 -9 -9 -10 -11 -11 -11 -11 -11 -12 -12 -14 -16 -18 -19 -20 -21 -19 -16 -15 -15 -15 -15 -15 -16 -16 -15 -13 -13 -13 -13 -13 -14 -13 -12 -12
-4 -3 -6 -6 -6 -7 -8 -8 -8 -8 -9 -11 -11 -11 -12 -12 -12 -12 -13 -14 -17 -21 -22 -23 -23 -23 -23 -21 -18 -16 -16 -16 -15 -15 -16 -15 -14 -14 -15 -16 -17 -17 -15 -15
-6 -6 -7 -7 -7 -7 -8 -8 -9 -10 -11 -11 -11 -12 -12 -13 -15 -16 -17 -18 -17 -16 -17 -20 -22 -23 -23 -23 -21 -19 -18 -17 -17 -16 -15 -15 -15 -14 -15 -16 -17 -17 -19 -21
-6 -7 -7 -7 -7 -8 -9 -11 -11 -11 -12 -12 -12 -12 -13 -16 -19 -20 -19 -18 -17 -16 -16 -17 -18 -20 -21 -23 -24 -22 -18 -17 -17 -18 -17 -15 -14 -15 -15 -15 -16 -17 -18 -19
-5 -4 -5 -6 -7 -8 -10 -11 -12 -12 -13 -13 -13 -15 -17 -18 -18 -18 -17 -17 -16 -15 -17 -18 -20 -21 -24 -25 -25 -24 -21 -18 -17 -17 -17 -16 -15 -15 -15 -16 -16 -16 -17 -18
-6 -5 -6 -7 -8 -10 -11 -12 -13 -13 -13 -14 -15 -17 -17 -16 -16 -16 -16 -17 -19 -20 -20 -20 -21 -23 -25 -26 -26 -25 -22 -18 -17 -17 -17 -16 -16 -16 -16 -16 -16 -17 -17 -18
-9 -9 -9 -9 -10 -12 -13 -13 -14 -14 -14 -15 -15 -15 -16 -17 -18 -19 -19 -19 -19 -18 -19 -20 -21 -23 -24 -25 -24 -24 -21 -18 -18 -19 -19 -18 -17 -17 -17 -17 -17 -17 -18 -18
-11 -10 -10 -11 -12 -13 -14 -14 -14 -14 -15 -16 -18 -18 -18 -16 -15 -16 -16 -16 -17 -17 -18 -19 -21 -22 -22 -23 -23 -22 -21 -19 -19 -19 -19 -18 -18 -18 -17 -17 -18 -18 -19 -19
-12 -12 -13 -13 -14 -14 -14 -15 -16 -16 -17 -16 -15 -15 -15 -15 -14 -14 -14 -15 -15 -16 -17 -18 -20 -21 -22 -21 -22 -22 -20 -20 -21 -20 -19 -19 -19 -19 -19 -19 -19 -19 -19 -20
-13 -13 -14 -14 -14 -15 -16 -17 -17 -16 -15 -15 -15 -15 -15 -15 -14 -14 -15 -15 -14 -15 -16 -18 -19 -20 -20 -20 -21 -21 -21 -20 -20 -20 -20 -20 -20 -20 -20 -20 -20 -20 -20 -20
-13 -14 -14 -14 -15 -15 -14 -14 -13 -14 -14 -15 -14 -14 -15 -16 -17 -17 -18 -18 -15 -15 -16 -17 -18 -19 -19 -19 -19 -19 -19 -19 -20 -20 -20 -20 -20 -21 -20 -21 -21 -21 -21 -21
-13 -14 -14 -15 -14 -14 -15 -14 -14 -14 -14 -14 -13 -14 -15 -15 -17 -18 -18 -20 -18 -16 -16 -17 -18 -18 -18 -18 -19 -19 -19 -20 -20 -20 -21 -21 -21 -21 -21 -21 -21 -21 -21 -21
-13 -14 -14 -14 -14 -14 -14 -13 -13 -13 -13 -13 -14 -15 -16 -17 -17 -17 -18 -19 -17 -16 -17 -17 -17 -17 -18 -18 -18 -18 -19 -19 -19 -20 -20 -21 -21 -21 -21 -21 -21 -22 -22 -22
-14 -14 -13 -13 -13 -13 -12 -12 -13 -13 -13 -15 -17 -18 -17 -17 -17 -17 -17 -17 -17 -17 -17 -18 -18 -18 -18 -18 -19 -18 -18 -18 -18 -19 -20 -21 -20 -21 -21 -21 -22 -22 -22 -22

GFSNGP_850_dewp_117.txt.gz
Dewpoint
4 3 1 2 1 2 2 1 0 1 -1 -1 -2 -2 -4 -5 -5 -5 -6 -6 -6 -7 -6 -4 -3 -2 -1 -1 -1 -0 1 1 2 2 3 5 6 7 8 8 9 9 9 9
4 4 4 1 1 -1 2 0 0 -1 -1 -2 -3 -4 -4 -5 -6 -6 -6 -7 -7 -7 -7 -6 -4 -3 -2 -2 -1 -1 -0 -0 0 1 1 2 3 4 5 6 6 8 8 8
4 4 2 2 1 0 -0 -0 0 -1 -1 -3 -4 -4 -5 -6 -6 -7 -7 -7 -7 -7 -7 -7 -6 -5 -3 -3 -2 -1 -1 -1 -1 -0 -0 0 1 2 2 3 4 4 5 5
4 4 4 2 -0 -0 -2 -1 -1 -2 -3 -5 -5 -5 -6 -7 -7 -7 -8 -8 -8 -7 -7 -7 -7 -7 -5 -4 -4 -3 -2 -2 -1 -1 -1 -1 -0 -0 1 1 1 2 2 3
5 3 3 1 -1 -1 -0 -1 -2 -2 -2 -4 -4 -4 -6 -8 -8 -8 -9 -8 -7 -7 -7 -7 -7 -7 -8 -7 -6 -5 -4 -3 -2 -2 -2 -1 -1 -1 -1 -0 0 -0 0 1
4 4 4 -0 -1 -1 -1 -1 -3 -4 -4 -5 -2 -3 -6 -8 -8 -8 -9 -8 -8 -7 -7 -7 -7 -7 -7 -8 -8 -7 -6 -5 -4 -3 -3 -2 -2 -2 -2 -1 -2 -2 -1 -1
2 2 0 -2 -1 -0 1 -0 -3 -5 -5 -6 -6 -6 -7 -8 -8 -9 -9 -8 -8 -8 -8 -8 -8 -8 -8 -8 -8 -8 -8 -7 -6 -5 -5 -4 -4 -3 -3 -3 -3 -3 -3 -3
1 2 1 -2 -0 -1 -2 -2 -4 -4 -5 -6 -6 -7 -7 -8 -9 -9 -9 -9 -9 -9 -9 -9 -9 -9 -9 -8 -8 -9 -9 -9 -8 -7 -6 -6 -6 -5 -5 -5 -5 -5 -5 -4
-1 -1 -2 -2 -2 -2 -2 -3 -3 -4 -6 -6 -7 -7 -8 -8 -9 -10 -10 -9 -9 -9 -9 -10 -10 -10 -9 -9 -9 -9 -9 -9 -9 -9 -9 -8 -8 -7 -7 -7 -6 -6 -7 -7
-1 -2 -2 -3 -3 -3 -3 -3 -4 -5 -6 -7 -7 -8 -8 -9 -10 -10 -10 -10 -10 -10 -10 -10 -10 -10 -10 -10 -10 -10 -10 -10 -10 -10 -10 -10 -9 -9 -9 -8 -8 -8 -8 -8
-2 -3 -3 -4 -4 -4 -4 -4 -4 -5 -6 -7 -7 -8 -9 -10 -10 -11 -12 -12 -12 -11 -11 -11 -11 -11 -12 -13 -14 -11 -12 -12 -12 -11 -11 -10 -10 -10 -10 -10 -9 -9 -9 -9
-1 -3 -3 -4 -4 -4 -6 -7 -7 -7 -8 -8 -9 -9 -10 -10 -10 -11 -12 -13 -14 -15 -16 -15 -14 -13 -13 -15 -16 -17 -17 -17 -17 -16 -14 -13 -12 -12 -12 -11 -11 -10 -10 -10
-2 -3 -4 -5 -5 -7 -8 -8 -8 -9 -9 -10 -10 -10 -10 -10 -11 -12 -13 -14 -16 -18 -19 -21 -22 -20 -18 -17 -17 -17 -18 -18 -18 -19 -18 -18 -18 -18 -17 -16 -14 -13 -12 -12
-3 -4 -4 -6 -7 -8 -8 -8 -8 -8 -9 -10 -11 -11 -11 -11 -12 -12 -14 -16 -18 -19 -20 -21 -21 -21 -21 -20 -19 -19 -18 -18 -19 -19 -19 -18 -18 -18 -18 -19 -20 -20 -19 -18
-3 -3 -5 -5 -7 -7 -8 -8 -8 -9 -10 -11 -11 -12 -12 -13 -13 -14 -16 -17 -17 -17 -18 -18 -18 -19 -21 -22 -22 -21 -20 -19 -19 -19 -18 -18 -17 -17 -17 -18 -19 -20 -20 -22
-6 -6 -6 -6 -7 -8 -8 -8 -9 -10 -11 -11 -12 -12 -13 -15 -17 -18 -18 -17 -17 -16 -17 -18 -20 -22 -24 -24 -24 -24 -22 -19 -18 -19 -18 -17 -16 -16 -16 -17 -17 -18 -20 -21
-7 -7 -7 -7 -7 -7 -8 -10 -11 -11 -12 -12 -12 -13 -16 -19 -19 -18 -17 -16 -16 -17 -19 -20 -21 -23 -24 -25 -26 -25 -24 -21 -20 -19 -18 -17 -16 -16 -16 -16 -17 -17 -18 -19
-6 -5 -5 -6 -7 -7 -10 -11 -12 -12 -13 -13 -14 -16 -18 -17 -16 -16 -16 -18 -19 -20 -19 -20 -21 -23 -25 -27 -27 -26 -23 -20 -19 -19 -18 -17 -16 -16 -16 -16 -17 -17 -17 -18
-5 -5 -5 -6 -7 -10 -11 -12 -13 -13 -14 -15 -16 -16 -16 -16 -18 -19 -20 -19 -19 -18 -18 -19 -19 -21 -24 -25 -25 -25 -23 -21 -19 -19 -20 -19 -18 -17 -17 -17 -17 -17 -18 -18
-7 -7 -7 -8 -10 -12 -13 -13 -14 -14 -15 -16 -15 -17 -19 -19 -16 -16 -16 -16 -16 -16 -16 -17 -18 -20 -22 -23 -23 -24 -23 -22 -21 -22 -21 -20 -19 -18 -17 -18 -18 -18 -18 -19
-9 -9 -10 -11 -12 -13 -14 -14 -14 -15 -15 -17 -18 -18 -15 -15 -15 -14 -14 -14 -14 -15 -15 -16 -17 -19 -20 -22 -22 -22 -22 -21 -21 -22 -21 -20 -19 -19 -19 -18 -18 -19 -19 -19
-11 -11 -12 -13 -14 -14 -14 -15 -16 -17 -18 -16 -15 -15 -15 -15 -15 -16 -15 -16 -17 -16 -15 -15 -16 -18 -19 -20 -20 -21 -21 -21 -21 -21 -20 -21 -20 -20 -20 -20 -19 -20 -20 -20
-12 -13 -14 -14 -14 -15 -17 -18 -17 -16 -15 -15 -15 -14 -15 -15 -15 -16 -18 -19 -19 -19 -16 -16 -16 -17 -19 -19 -19 -20 -20 -20 -21 -21 -21 -21 -21 -21 -21 -20 -20 -20 -20 -20
-13 -14 -14 -14 -15 -16 -15 -14 -13 -13 -14 -14 -14 -14 -14 -16 -17 -17 -17 -18 -20 -20 -18 -16 -16 -17 -17 -18 -18 -18 -19 -19 -19 -20 -20 -21 -22 -21 -21 -21 -21 -21 -21 -21
-13 -14 -14 -14 -15 -13 -14 -15 -14 -14 -14 -14 -14 -14 -15 -17 -18 -18 -18 -19 -19 -19 -18 -17 -17 -17 -17 -17 -17 -18 -18 -18 -18 -18 -19 -20 -20 -21 -22 -22 -21 -21 -21 -21
-13 -13 -14 -14 -15 -15 -14 -13 -13 -13 -14 -14 -15 -18 -20 -19 -18 -17 -18 -18 -18 -17 -17 -17 -17 -17 -18 -18 -18 -18 -18 -19 -19 -18 -18 -19 -19 -21 -21 -21 -21 -21 -22 -22
-13 -14 -14 -14 -13 -13 -13 -12 -13 -13 -14 -16 -18 -19 -21 -21 -20 -20 -20 -21 -21 -20 -20 -19 -18 -18 -19 -19 -19 -19 -19 -19 -20 -20 -20 -19 -19 -19 -20 -21 -21 -21 -22 -22

GFSNGP_850_dewp_120.txt.gz
Dewpoint
2 3 3 1 2 2 2 3 4 2 -0 -1 -2 -3 -4 -4 -5 -5 -6 -6 -7 -7 -7 -7 -5 -4 -3 -2 -1 -1 -0 0 0 1 2 3 4 5 5 6 7 8 9 9
4 4 4 2 2 0 1 1 0 -1 -1 -2 -4 -4 -5 -5 -6 -7 -6 -6 -7 -7 -7 -7 -7 -7 -4 -3 -2 -1 -1 -1 -0 -0 0 1 1 2 3 3 4 4 6 6
3 4 2 3 2 1 0 -1 1 1 -1 -3 -3 -5 -6 -6 -6 -7 -6 -7 -8 -8 -8 -7 -7 -7 -5 -5 -4 -2 -2 -1 -1 -1 -0 -0 0 1 1 1 1 2 3 3
2 4 6 3 -1 -2 -2 -2 -3 -3 -3 -4 -5 -5 -6 -6 -6 -6 -7 -7 -8 -8 -8 -7 -7 -7 -7 -6 -5 -4 -3 -2 -2 -2 -1 -1 -1 -1 -1 -0 -0 -0 0 1
4 5 3 1 -0 -0 0 -1 -3 -2 -3 -4 -4 -4 -6 -7 -7 -7 -8 -8 -8 -8 -8 -8 -7 -8 -8 -8 -7 -6 -5 -5 -4 -3 -3 -3 -2 -2 -2 -2 -2 -2 -2 -1
2 4 4 0 -2 -1 -1 1 -4 -4 -3 -3 -3 -1 -5 -7 -8 -8 -8 -8 -8 -8 -8 -8 -8 -8 -8 -8 -9 -9 -8 -7 -6 -5 -5 -4 -4 -4 -4 -3 -3 -3 -3 -3
2 2 1 -2 -1 -1 2 1 -4 -4 -5 -5 -4 -5 -7 -7 -8 -8 -9 -9 -9 -9 -9 -9 -8 -8 -8 -8 -8 -8 -9 -9 -8 -7 -6 -6 -6 -6 -5 -5 -5 -5 -4 -4
1 2 3 -2 0 2 -1 -3 -4 -4 -5 -5 -5 -7 -8 -9 -9 -8 -9 -9 -9 -9 -9 -9 -9 -9 -9 -9 -8 -8 -8 -9 -9 -9 -9 -9 -8 -8 -7 -7 -7 -6 -6 -6
-1 -0 -2 -2 -2 -2 -3 -3 -4 -5 -5 -5 -6 -7 -8 -9 -9 -9 -10 -10 -10 -10 -10 -10 -10 -10 -9 -10 -8 -8 -8 -8 -9 -9 -9 -9 -9 -9 -9 -9 -8 -8 -8 -8
-1 -1 -2 -3 -3 -3 -2 -3 -4 -5 -5 -5 -6 -7 -8 -8 -9 -11 -12 -12 -11 -11 -11 -11 -10 -11 -11 -10 -10 -10 -10 -10 -10 -10 -10 -10 -10 -10 -10 -10 -9 -9 -9 -9
-1 -2 -3 -3 -4 -4 -4 -4 -5 -6 -6 -7 -7 -8 -9 -10 -10 -12 -13 -13 -14 -14 -13 -13 -12 -14 -15 -13 -11 -12 -12 -11 -12 -11 -11 -12 -11 -15 -14 -13 -12 -11 -11 -10
1 -2 -1 -3 -4 -5 -5 -6 -6 -7 -8 -8 -9 -9 -9 -9 -10 -12 -14 -14 -15 -16 -17 -17 -19 -19 -19 -18 -15 -13 -12 -12 -12 -11 -11 -12 -12 -13 -13 -18 -17 -16 -15 -14
-2 -2 -3 -4 -5 -5 -6 -7 -8 -8 -9 -9 -9 -10 -10 -10 -12 -13 -14 -16 -16 -17 -18 -19 -20 -21 -21 -20 -19 -19 -12 -15 -11 -11 -11 -11 -12 -12 -12 -12 -17 -21 -22 -22
-3 -4 -4 -5 -6 -7 -8 -8 -9 -9 -10 -10 -11 -11 -11 -11 -12 -13 -16 -16 -17 -17 -17 -18 -18 -19 -20 -21 -21 -21 -16 -12 -12 -12 -12 -12 -13 -13 -13 -13 -13 -13 -19 -24
-3 -3 -4 -6 -7 -8 -8 -8 -9 -10 -10 -11 -11 -11 -12 -13 -15 -17 -17 -17 -17 -17 -18 -21 -24 -26 -27 -27 -28 -27 -18 -13 -16 -13 -13 -13 -13 -13 -13 -13 -13 -14 -14 -17
-5 -5 -6 -7 -7 -8 -8 -8 -9 -10 -10 -11 -11 -13 -15 -17 -17 -18 -17 -17 -17 -19 -23 -24 -23 -25 -27 -29 -30 -18 -14 -14 -15 -14 -13 -13 -13 -14 -14 -14 -14 -14 -15 -17
-6 -6 -6 -7 -7 -7 -7 -9 -10 -11 -11 -12 -13 -15 -17 -18 -17 -16 -17 -19 -21 -22 -21 -21 -21 -22 -25 -28 -29 -15 -15 -14 -15 -14 -14 -14 -14 -14 -14 -15 -15 -15 -16 -17
-5 -6 -6 -6 -7 -7 -9 -11 -12 -12 -13 -14 -15 -17 -16 -16 -17 -19 -21 -20 -20 -19 -18 -18 -18 -20 -22 -25 -27 -16 -16 -15 -15 -15 -15 -15 -15 -15 -15 -15 -15 -16 -16 -17
-5 -5 -5 -6 -7 -8 -11 -13 -13 -14 -14 -15 -16 -16 -17 -19 -19 -18 -17 -17 -16 -15 -14 -16 -17 -18 -20 -22 -24 -16 -16 -16 -16 -16 -16 -16 -16 -16 -16 -16 -16 -16 -17 -17
-6 -6 -6 -6 -8 -11 -13 -14 -14 -15 -15 -16 -17 -19 -19 -17 -16 -16 -16 -15 -14 -14 -15 -15 -16 -17 -18 -20 -21 -17 -17 -17 -17 -17 -17 -17 -17 -17 -17 -17 -17 -17 -17 -18
-7 -7 -8 -10 -12 -13 -14 -14 -15 -16 -17 -19 -19 -17 -16 -16 -16 -17 -15 -14 -13 -15 -17 -16 -16 -16 -17 -19 -18 -17 -17 -18 -18 -18 -18 -18 -18 -18 -18 -18 -18 -18 -18 -18
-9 -10 -11 -12 -14 -14 -14 -15 -16 -18 -19 -17 -16 -16 -15 -15 -16 -15 -15 -17 -17 -18 -19 -16 -16 -16 -16 -18 -17 -17 -17 -18 -18 -18 -18 -18 -18 -19 -19 -19 -19 -19 -19 -19
-11 -11 -13 -14 -14 -15 -16 -19 -19 -17 -15 -15 -15 -15 -15 -14 -14 -14 -14 -15 -16 -17 -19 -16 -16 -16 -16 -17 -17 -17 -17 -18 -18 -18 -18 -18 -18 -19 -19 -19 -19 -19 -19 -20
-12 -13 -14 -14 -15 -17 -18 -16 -14 -14 -14 -14 -14 -15 -15 -13 -14 -14 -15 -15 -16 -19 -18 -16 -16 -17 -17 -17 -17 -17 -18 -18 -18 -18 -18 -18 -19 -18 -19 -19 -20 -20 -20 -20
-13 -14 -14 -15 -16 -14 -13 -14 -14 -13 -13 -13 -13 -14 -17 -19 -20 -16 -17 -17 -17 -18 -17 -17 -17 -17 -17 -18 -18 -18 -19 -19 -19 -19 -19 -19 -18 -18 -19 -19 -19 -20 -20 -20
-14 -14 -14 -15 -11 -11 -11 -12 -11 -12 -12 -12 -13 -14 -15 -18 -19 -18 -17 -18 -18 -18 -18 -18 -19 -20 -19 -19 -19 -19 -19 -19 -19 -19 -20 -20 -20 -20 -19 -19 -19 -20 -20 -20
-13 -13 -12 -11 -12 -11 -11 -11 -12 -12 -13 -15 -14 -16 -20 -22 -20 -22 -21 -18 -20 -19 -19 -20 -20 -21 -20 -20 -21 -21 -21 -21 -21 -21 -21 -21 -20 -20 -20 -20 -20 -20 -20 -21

GFSNGP_850_dewp_123.txt.gz
Dewpoint
2 0 1 2 2 1 1 3 4 3 1 -1 -2 -3 -3 -4 -5 -6 -5 -6 -6 -7 -7 -7 -6 -6 -6 -3 -3 -3 -3 -2 -2 -0 1 2 3 3 4 5 5 5 6 7
4 2 2 5 2 1 1 1 1 -1 -0 -3 -4 -4 -4 -5 -6 -6 -6 -6 -6 -7 -7 -7 -7 -7 -6 -5 -4 -3 -1 -1 -2 -1 -0 0 1 1 2 2 3 3 4 4
3 2 2 5 2 2 -1 -2 0 2 -1 -4 -4 -4 -5 -5 -6 -6 -6 -6 -7 -7 -7 -7 -7 -7 -7 -6 -4 -3 -2 -2 -1 -1 -1 -1 -2 -1 -0 -0 0 1 1 1
2 3 5 3 -1 -2 -2 -2 -3 -3 -3 -4 -5 -5 -5 -6 -6 -6 -6 -6 -6 -7 -7 -7 -7 -7 -7 -7 -7 -6 -5 -4 -3 -3 -3 -3 -2 -2 -2 -2 -2 -2 -2 -1
3 1 3 1 -1 -2 -1 -1 -3 -3 -4 -4 -5 -4 -4 -6 -6 -7 -7 -7 -8 -8 -7 -7 -7 -7 -8 -8 -9 -8 -8 -7 -6 -5 -5 -5 -4 -4 -4 -3 -3 -3 -3 -3
1 2 4 3 -2 -2 -2 1 -4 -3 -3 -4 -4 -1 -4 -6 -7 -7 -8 -8 -8 -8 -9 -8 -8 -7 -7 -8 -7 -8 -8 -8 -8 -8 -7 -6 -6 -6 -5 -5 -5 -5 -5 -5
2 1 1 -2 -2 -0 2 2 -3 -4 -4 -3 -2 -4 -6 -6 -7 -8 -9 -9 -9 -9 -9 -9 -9 -8 -7 -7 -8 -7 -7 -9 -9 -9 -9 -9 -8 -8 -7 -7 -7 -7 -7 -7
-0 0 2 -2 0 2 -1 -3 -3 -4 -4 -5 -5 -6 -7 -7 -8 -8 -9 -10 -10 -9 -10 -10 -10 -10 -9 -9 -9 -9 -8 -8 -8 -8 -8 -8 -8 -9 -9 -9 -9 -9 -9 -9
-0 1 -3 -1 -0 -1 -1 -2 -3 -4 -5 -5 -5 -6 -7 -7 -7 -9 -10 -10 -10 -11 -11 -10 -11 -11 -10 -10 -11 -11 -10 -10 -9 -10 -10 -9 -9 -9 -12 -12 -10 -10 -10 -9
-1 -3 -3 -2 -2 -2 -2 -2 -3 -5 -5 -5 -6 -6 -7 -7 -10 -11 -12 -13 -13 -13 -13 -13 -12 -12 -11 -11 -11 -12 -11 -11 -10 -10 -11 -11 -10 -11 -11 -17 -13 -11 -13 -12
-1 -2 -2 -2 -3 -3 -3 -3 -5 -6 -6 -7 -8 -9 -9 -10 -11 -12 -13 -14 -15 -15 -15 -15 -14 -14 -14 -13 -11 -11 -12 -11 -11 -10 -10 -11 -11 -11 -11 -14 -19 -21 -20 -14
2 -2 -1 -2 -3 -4 -4 -4 -6 -7 -8 -8 -8 -9 -9 -10 -12 -13 -14 -15 -15 -15 -15 -16 -16 -19 -20 -21 -19 -16 -11 -11 -11 -10 -11 -11 -11 -11 -10 -11 -12 -14 -18 -24
-1 -1 -3 -3 -4 -4 -5 -6 -7 -8 -9 -9 -9 -9 -10 -11 -12 -14 -15 -15 -15 -15 -14 -14 -19 -24 -26 -28 -28 -24 -12 -11 -11 -11 -11 -11 -11 -11 -11 -11 -11 -12 -13 -16
-2 -3 -4 -4 -4 -5 -7 -8 -8 -9 -10 -10 -10 -10 -11 -11 -12 -13 -14 -14 -15 -15 -19 -23 -27 -28 -29 -30 -30 -29 -19 -12 -12 -11 -11 -12 -12 -11 -11 -11 -11 -12 -12 -13
-3 -2 -4 -4 -7 -7 -8 -8 -9 -10 -10 -10 -11 -10 -11 -12 -13 -14 -15 -15 -15 -16 -23 -25 -25 -26 -28 -30 -31 -26 -13 -12 -13 -12 -12 -12 -12 -12 -12 -12 -12 -12 -13 -13
-3 -3 -5 -7 -7 -7 -8 -8 -10 -10 -10 -11 -11 -12 -12 -13 -15 -17 -18 -19 -18 -21 -23 -22 -22 -22 -25 -27 -30 -15 -13 -13 -13 -13 -12 -13 -13 -13 -13 -13 -13 -13 -13 -14
-4 -5 -6 -7 -7 -7 -7 -8 -8 -9 -9 -11 -13 -16 -17 -17 -17 -19 -22 -23 -22 -22 -21 -20 -20 -21 -23 -24 -26 -14 -13 -13 -14 -14 -14 -14 -14 -14 -14 -14 -14 -14 -14 -15
-5 -6 -6 -6 -6 -7 -8 -8 -9 -10 -12 -13 -15 -17 -17 -18 -17 -21 -21 -20 -20 -19 -16 -16 -17 -18 -19 -21 -23 -15 -15 -15 -15 -15 -15 -15 -15 -15 -14 -15 -14 -14 -15 -15
-5 -5 -5 -5 -6 -8 -9 -10 -10 -12 -14 -16 -17 -17 -19 -22 -20 -20 -19 -19 -17 -13 -12 -14 -17 -17 -15 -17 -20 -16 -15 -15 -15 -16 -15 -15 -16 -15 -15 -15 -15 -15 -15 -15
-4 -5 -6 -6 -8 -9 -11 -13 -14 -15 -16 -17 -18 -21 -21 -20 -19 -19 -19 -16 -12 -13 -15 -15 -16 -15 -15 -16 -17 -17 -16 -15 -15 -16 -16 -16 -16 -16 -16 -16 -16 -16 -16 -16
-6 -6 -7 -7 -9 -12 -14 -14 -15 -16 -17 -20 -21 -20 -19 -18 -18 -18 -14 -13 -12 -14 -17 -16 -15 -15 -15 -16 -17 -16 -16 -16 -16 -16 -16 -16 -16 -16 -17 -17 -17 -17 -17 -17
-7 -7 -8 -11 -13 -14 -15 -16 -16 -18 -21 -19 -19 -18 -17 -13 -12 -13 -14 -13 -14 -14 -15 -15 -15 -15 -15 -16 -16 -16 -16 -16 -16 -16 -16 -16 -16 -17 -17 -17 -17 -17 -18 -18
-9 -10 -11 -13 -14 -15 -16 -17 -19 -20 -18 -18 -17 -16 -13 -13 -12 -13 -13 -13 -14 -15 -16 -15 -15 -16 -16 -17 -17 -16 -16 -16 -16 -16 -16 -16 -17 -17 -17 -17 -18 -18 -18 -18
-10 -11 -13 -14 -15 -16 -19 -19 -18 -16 -16 -15 -14 -14 -14 -12 -12 -13 -13 -14 -15 -16 -16 -15 -16 -16 -17 -17 -17 -16 -17 -17 -17 -17 -17 -17 -17 -18 -17 -17 -17 -18 -18 -19
-11 -13 -14 -15 -15 -13 -11 -13 -12 -11 -12 -11 -12 -13 -13 -14 -14 -14 -15 -15 -16 -16 -17 -16 -17 -18 -18 -18 -18 -18 -18 -18 -18 -18 -18 -18 -18 -18 -18 -18 -18 -17 -18 -18
-13 -12 -12 -12 -11 -11 -11 -12 -11 -11 -12 -11 -12 -12 -14 -14 -15 -16 -16 -16 -17 -17 -17 -18 -18 -19 -19 -20 -20 -20 -20 -20 -20 -20 -20 -20 -20 -20 -19 -19 -19 -19 -18 -18
-10 -10 -11 -11 -11 -11 -11 -11 -11 -11 -12 -12 -13 -13 -15 -15 -16 -17 -17 -18 -18 -19 -19 -20 -20 -20 -21 -21 -22 -22 -22 -22 -22 -22 -23 -22 -22 -22 -21 -21 -20 -20 -20 -19

GFSNGP_850_dewp_129.txt.gz
Dewpoint
3 2 1 2 5 1 2 1 3 3 1 -1 -2 -3 -4 -5 -6 -6 -6 -7 -8 -7 -7 -8 -7 -7 -8 -6 -5 -5 -3 -3 -3 -3 -2 -0 2 1 1 1 1 1 3 5
3 0 2 3 3 1 2 1 1 1 -0 -3 -3 -4 -5 -5 -6 -6 -6 -7 -8 -7 -7 -7 -7 -7 -8 -9 -8 -7 -5 -4 -4 -3 -2 -1 -1 0 -0 -1 -0 0 1 1
3 2 5 4 2 1 1 1 1 2 -0 -3 -3 -4 -5 -5 -6 -6 -7 -7 -8 -8 -7 -8 -7 -8 -8 -9 -9 -9 -9 -8 -6 -6 -5 -5 -4 -3 -4 -3 -3 -4 -3 -2
4 1 4 2 1 1 0 -2 -2 -2 -3 -3 -4 -5 -5 -6 -6 -7 -8 -8 -9 -9 -8 -9 -9 -9 -9 -9 -9 -10 -11 -11 -10 -9 -8 -8 -8 -7 -6 -6 -6 -6 -5 -5
3 3 2 1 -1 -0 0 0 -3 -2 -4 -4 -4 -5 -5 -6 -7 -8 -8 -9 -9 -9 -10 -9 -10 -10 -10 -10 -9 -10 -10 -12 -13 -13 -12 -11 -9 -9 -9 -8 -9 -9 -9 -9
2 3 3 2 -1 -1 -2 3 -3 -4 -4 -4 -4 -1 -4 -7 -8 -9 -9 -9 -9 -10 -10 -10 -10 -11 -11 -10 -10 -9 -10 -10 -11 -15 -17 -19 -18 -14 -13 -12 -11 -10 -10 -10
2 3 2 -1 -1 -2 2 1 -3 -3 -4 -4 -3 -4 -5 -8 -8 -9 -10 -10 -10 -11 -12 -12 -12 -12 -11 -11 -10 -10 -10 -11 -11 -14 -17 -18 -20 -22 -21 -20 -20 -19 -18 -17
3 3 2 -1 -1 1 -1 -3 -3 -3 -3 -4 -5 -5 -6 -8 -9 -10 -11 -11 -12 -12 -14 -15 -17 -17 -13 -11 -11 -12 -11 -11 -11 -11 -13 -17 -18 -20 -23 -24 -24 -24 -23 -22
1 1 -1 0 0 -1 -2 -3 -3 -3 -4 -4 -5 -7 -8 -10 -11 -12 -13 -14 -14 -15 -16 -18 -21 -23 -22 -15 -11 -11 -14 -12 -11 -11 -11 -11 -13 -14 -17 -20 -22 -22 -24 -24
-1 -1 -1 -1 -0 -1 -2 -2 -3 -4 -4 -5 -6 -9 -10 -11 -12 -13 -14 -15 -15 -16 -19 -23 -29 -31 -30 -29 -20 -15 -16 -13 -11 -12 -13 -12 -11 -12 -14 -15 -15 -16 -17 -17
-1 -1 -1 -1 -1 -2 -2 -3 -3 -4 -4 -5 -7 -8 -9 -12 -13 -14 -15 -15 -16 -17 -21 -28 -31 -32 -33 -33 -31 -24 -18 -19 -17 -14 -13 -14 -13 -13 -12 -12 -12 -13 -14 -14
-1 -3 -3 -2 -3 -3 -3 -3 -3 -4 -4 -5 -6 -9 -11 -13 -13 -14 -15 -15 -16 -20 -27 -29 -30 -31 -32 -32 -29 -24 -19 -17 -18 -14 -12 -13 -13 -13 -12 -12 -12 -12 -12 -13
-1 -3 -3 -3 -4 -3 -4 -4 -4 -5 -5 -6 -7 -9 -12 -14 -14 -15 -15 -17 -20 -26 -28 -28 -28 -30 -31 -32 -31 -26 -20 -16 -18 -16 -13 -12 -13 -14 -14 -14 -13 -12 -13 -13
-2 -3 -3 -3 -4 -4 -4 -5 -6 -7 -7 -8 -9 -10 -11 -13 -14 -16 -18 -18 -19 -25 -27 -26 -26 -29 -31 -31 -31 -26 -19 -14 -17 -16 -14 -14 -15 -15 -15 -15 -16 -15 -13 -14
-3 -3 -3 -4 -4 -4 -6 -7 -8 -9 -9 -9 -10 -11 -12 -14 -17 -20 -20 -16 -17 -21 -25 -24 -26 -29 -29 -29 -29 -25 -19 -15 -15 -15 -15 -15 -15 -16 -16 -16 -14 -15 -15 -15
-3 -3 -3 -4 -4 -7 -8 -9 -9 -10 -10 -10 -11 -12 -14 -16 -19 -22 -25 -22 -18 -24 -21 -20 -24 -29 -30 -28 -28 -27 -22 -16 -17 -17 -16 -15 -15 -17 -18 -15 -16 -17 -16 -15
-3 -3 -3 -5 -7 -8 -9 -9 -10 -10 -10 -11 -12 -14 -16 -19 -21 -25 -25 -25 -23 -17 -15 -20 -24 -29 -29 -26 -23 -24 -25 -19 -17 -18 -17 -16 -17 -17 -18 -17 -18 -18 -17 -18
-3 -4 -6 -7 -7 -8 -8 -9 -10 -10 -11 -12 -14 -16 -19 -19 -23 -24 -24 -23 -14 -13 -15 -19 -22 -22 -21 -22 -19 -19 -18 -20 -17 -16 -17 -17 -18 -18 -18 -18 -19 -18 -19 -19
-4 -5 -6 -7 -7 -7 -8 -9 -9 -10 -11 -13 -16 -19 -20 -25 -24 -24 -24 -17 -14 -13 -15 -17 -18 -18 -18 -18 -17 -15 -15 -15 -18 -17 -17 -16 -17 -18 -18 -18 -18 -19 -20 -21
-5 -6 -6 -6 -6 -7 -7 -8 -9 -11 -13 -16 -19 -20 -24 -24 -23 -22 -17 -12 -13 -13 -14 -17 -19 -18 -15 -14 -14 -14 -15 -16 -18 -18 -17 -16 -16 -17 -18 -17 -17 -17 -17 -18
-6 -6 -6 -6 -6 -6 -8 -9 -11 -14 -16 -18 -20 -24 -23 -20 -16 -15 -15 -12 -13 -13 -14 -16 -19 -18 -15 -15 -15 -17 -19 -18 -17 -17 -16 -16 -16 -16 -17 -17 -16 -17 -17 -18
-5 -5 -5 -5 -6 -8 -9 -11 -13 -16 -18 -20 -23 -22 -18 -12 -12 -12 -12 -12 -13 -13 -14 -15 -18 -18 -16 -16 -17 -19 -18 -17 -17 -17 -17 -17 -17 -17 -18 -18 -18 -18 -18 -19
-5 -5 -6 -6 -7 -8 -12 -14 -16 -18 -20 -23 -21 -20 -18 -14 -13 -12 -12 -13 -13 -13 -14 -18 -18 -17 -18 -18 -19 -20 -19 -18 -19 -19 -19 -19 -19 -19 -19 -19 -19 -19 -19 -19
-6 -6 -7 -7 -9 -13 -14 -16 -17 -19 -21 -20 -18 -18 -17 -14 -13 -12 -13 -13 -13 -15 -17 -18 -18 -18 -18 -19 -21 -22 -22 -22 -23 -22 -21 -21 -21 -21 -21 -21 -21 -21 -21 -20
-7 -7 -9 -11 -13 -15 -16 -17 -20 -20 -18 -17 -14 -13 -13 -14 -14 -15 -17 -17 -17 -17 -18 -18 -19 -20 -22 -24 -23 -24 -25 -24 -23 -23 -23 -23 -23 -24 -24 -23 -23 -23 -23 -23
-9 -10 -12 -13 -15 -16 -18 -20 -18 -13 -12 -11 -11 -11 -12 -12 -13 -15 -17 -18 -18 -19 -20 -22 -24 -27 -29 -28 -28 -28 -26 -26 -26 -26 -25 -25 -26 -25 -25 -25 -26 -26 -25 -25
-10 -12 -13 -12 -11 -11 -11 -13 -10 -10 -10 -10 -11 -12 -12 -13 -14 -16 -18 -19 -21 -24 -26 -28 -29 -30 -29 -29 -29 -28 -27 -27 -26 -26 -26 -26 -26 -26 -26 -27 -26 -26 -26 -26

GFSNGP_850_dewp_132.txt.gz
Dewpoint
2 2 2 2 2 3 4 2 3 -1 2 -0 -1 -3 -4 -5 -6 -6 -7 -8 -8 -8 -8 -9 -9 -9 -9 -11 -9 -7 -6 -5 -5 -5 -6 -6 -5 -2 -1 2 2 3 3 3
-0 1 2 2 1 1 3 1 1 1 1 -2 -3 -4 -5 -6 -6 -7 -7 -8 -8 -8 -9 -9 -10 -10 -11 -10 -12 -13 -11 -8 -7 -6 -6 -6 -5 -4 -2 -1 0 1 1 1
1 -1 2 3 2 2 1 1 -0 2 -0 -3 -3 -4 -5 -5 -6 -7 -7 -9 -9 -9 -9 -9 -10 -10 -9 -11 -11 -13 -15 -17 -14 -10 -9 -8 -7 -8 -8 -6 -2 -1 -0 -0
2 1 2 -2 1 1 1 0 -1 -2 -2 -3 -4 -5 -5 -6 -7 -8 -8 -9 -9 -9 -10 -10 -10 -11 -11 -10 -12 -14 -14 -18 -20 -20 -17 -14 -11 -10 -9 -10 -10 -10 -9 -9
3 2 0 1 0 1 2 1 -2 -2 -3 -4 -5 -5 -5 -6 -7 -8 -9 -9 -9 -10 -10 -11 -11 -11 -12 -11 -11 -12 -12 -13 -16 -17 -21 -21 -21 -19 -18 -16 -14 -14 -13 -11
3 3 2 1 -1 -2 -1 2 -3 -3 -4 -4 -4 -2 -4 -7 -8 -9 -9 -9 -10 -11 -11 -12 -11 -12 -14 -12 -11 -12 -12 -12 -14 -16 -17 -20 -21 -22 -23 -23 -22 -22 -22 -21
2 2 1 -1 -1 -2 2 -0 -3 -4 -4 -4 -4 -4 -4 -8 -9 -9 -10 -10 -11 -14 -17 -17 -15 -13 -16 -16 -11 -11 -13 -14 -16 -17 -16 -18 -22 -23 -25 -27 -28 -28 -27 -25
1 2 1 -1 -2 0 -2 -3 -3 -4 -4 -4 -4 -4 -6 -8 -9 -10 -11 -12 -14 -17 -22 -24 -23 -18 -16 -18 -15 -15 -17 -17 -17 -17 -17 -19 -21 -23 -25 -26 -28 -28 -29 -30
1 0 -1 -0 -0 -1 -3 -3 -3 -4 -4 -4 -4 -5 -7 -9 -11 -12 -13 -14 -15 -20 -26 -32 -32 -29 -22 -17 -20 -18 -18 -17 -16 -16 -17 -19 -19 -19 -22 -24 -25 -23 -23 -24
-1 -1 -1 -0 -1 -2 -3 -3 -3 -3 -4 -4 -5 -6 -9 -11 -13 -14 -14 -15 -16 -20 -31 -32 -33 -33 -31 -24 -21 -20 -19 -19 -19 -20 -20 -20 -20 -19 -19 -19 -17 -18 -19 -19
-1 -1 -1 -1 -1 -1 -2 -3 -4 -4 -4 -5 -6 -6 -7 -10 -11 -14 -15 -15 -18 -25 -30 -30 -31 -32 -30 -27 -24 -21 -23 -22 -21 -20 -18 -17 -17 -17 -16 -16 -15 -14 -15 -15
-1 -2 -3 -2 -2 -2 -3 -3 -4 -5 -5 -6 -6 -6 -8 -9 -11 -15 -15 -17 -22 -27 -28 -28 -30 -31 -28 -23 -20 -19 -20 -22 -21 -20 -18 -17 -16 -15 -14 -14 -14 -14 -15 -16
-2 -3 -3 -2 -2 -4 -3 -3 -4 -5 -5 -5 -7 -7 -8 -11 -14 -14 -16 -19 -26 -27 -26 -26 -28 -29 -29 -24 -19 -19 -18 -17 -14 -14 -14 -15 -15 -15 -16 -17 -15 -15 -14 -15
-3 -3 -3 -3 -3 -3 -4 -4 -4 -5 -5 -5 -6 -7 -11 -13 -14 -16 -19 -20 -23 -25 -25 -25 -27 -29 -27 -26 -20 -19 -18 -18 -17 -16 -15 -15 -16 -17 -17 -15 -15 -16 -16 -16
-3 -3 -4 -3 -4 -4 -4 -4 -6 -6 -6 -7 -10 -11 -12 -13 -15 -18 -19 -18 -17 -24 -23 -21 -27 -28 -26 -27 -25 -23 -21 -20 -18 -18 -17 -17 -18 -18 -19 -18 -17 -18 -17 -17
-3 -3 -3 -3 -4 -4 -5 -6 -8 -7 -9 -10 -10 -11 -13 -16 -19 -21 -20 -18 -18 -24 -18 -22 -28 -27 -23 -21 -22 -21 -20 -19 -18 -18 -18 -18 -18 -19 -18 -18 -19 -19 -19 -20
-3 -3 -4 -4 -4 -5 -7 -8 -8 -9 -10 -10 -11 -12 -14 -18 -21 -25 -25 -24 -24 -18 -19 -23 -24 -20 -19 -18 -17 -16 -16 -17 -17 -19 -17 -17 -17 -18 -19 -19 -19 -19 -20 -21
-4 -4 -4 -4 -5 -7 -8 -9 -9 -10 -10 -11 -12 -15 -17 -21 -25 -25 -25 -25 -19 -15 -18 -22 -21 -17 -15 -16 -16 -15 -15 -16 -18 -19 -19 -17 -16 -17 -17 -18 -18 -17 -17 -17
-3 -4 -4 -6 -7 -8 -9 -9 -10 -10 -11 -12 -13 -17 -19 -20 -24 -24 -26 -21 -15 -15 -16 -17 -19 -19 -18 -16 -15 -14 -15 -17 -21 -20 -18 -18 -17 -17 -16 -16 -17 -17 -18 -16
-4 -5 -6 -7 -7 -8 -8 -9 -9 -10 -10 -12 -15 -19 -22 -24 -24 -23 -18 -14 -14 -14 -15 -16 -16 -18 -19 -17 -16 -17 -19 -21 -21 -19 -18 -18 -17 -17 -17 -17 -18 -19 -18 -18
-5 -6 -6 -6 -7 -7 -7 -8 -8 -9 -11 -14 -19 -21 -24 -22 -18 -16 -15 -14 -14 -13 -14 -14 -15 -18 -19 -18 -19 -20 -21 -22 -20 -19 -18 -17 -17 -18 -18 -18 -19 -19 -18 -19
-6 -6 -6 -6 -6 -6 -7 -8 -9 -12 -15 -18 -20 -22 -20 -16 -15 -13 -13 -13 -13 -13 -14 -14 -15 -19 -19 -19 -20 -23 -25 -24 -22 -22 -23 -23 -21 -21 -20 -21 -21 -21 -21 -20
-5 -5 -5 -5 -5 -6 -8 -10 -12 -15 -17 -19 -22 -20 -16 -16 -17 -14 -13 -13 -13 -14 -14 -15 -17 -18 -19 -22 -25 -26 -25 -26 -27 -27 -25 -24 -23 -23 -23 -23 -23 -23 -23 -23
-5 -5 -5 -6 -7 -8 -9 -12 -15 -17 -19 -21 -20 -18 -19 -19 -16 -14 -14 -14 -14 -15 -16 -17 -18 -20 -23 -26 -29 -30 -30 -30 -30 -28 -27 -26 -26 -26 -26 -25 -25 -25 -25 -25
-5 -5 -6 -7 -7 -9 -13 -15 -17 -18 -20 -19 -17 -15 -15 -16 -15 -14 -14 -16 -16 -17 -17 -19 -23 -28 -31 -31 -31 -30 -30 -30 -29 -28 -28 -28 -27 -27 -27 -26 -27 -27 -27 -26
-7 -7 -7 -8 -10 -13 -15 -17 -18 -20 -19 -17 -13 -12 -12 -13 -13 -13 -14 -15 -17 -18 -21 -27 -30 -31 -31 -30 -30 -30 -30 -29 -29 -28 -28 -27 -27 -27 -27 -27 -27 -27 -27 -26
-9 -9 -11 -12 -14 -15 -16 -19 -19 -14 -12 -12 -12 -12 -12 -13 -13 -14 -14 -17 -19 -23 -29 -31 -31 -30 -30 -30 -30 -29 -29 -28 -28 -27 -27 -27 -27 -27 -27 -27 -27 -27 -27 -28

GFSNGP_850_dewp_135.txt.gz
Dewpoint
2 1 1 1 1 0 2 2 3 0 2 0 -1 -2 -4 -6 -6 -6 -7 -9 -8 -9 -9 -10 -10 -12 -12 -15 -18 -18 -14 -10 -7 -4 -4 -4 -4 -4 -7 -7 -4 -3 -1 1
-1 -1 -2 -1 -0 0 0 1 2 2 2 -2 -2 -4 -5 -6 -6 -7 -7 -9 -9 -9 -10 -10 -11 -11 -12 -13 -15 -19 -21 -20 -18 -13 -8 -6 -7 -5 -4 -3 -3 -5 -2 -1
-0 -2 -1 1 0 0 1 1 2 2 -0 -2 -3 -4 -5 -6 -6 -7 -8 -9 -9 -9 -10 -10 -11 -11 -12 -12 -14 -16 -17 -21 -22 -22 -21 -19 -18 -14 -10 -10 -8 -4 -2 -2
1 1 2 -2 -0 0 2 1 -1 -1 -2 -3 -4 -4 -5 -6 -7 -7 -8 -9 -10 -10 -10 -11 -11 -12 -13 -13 -14 -14 -15 -17 -20 -23 -24 -24 -24 -23 -22 -21 -16 -12 -10 -9
2 1 -1 -2 0 1 2 2 -1 -2 -3 -4 -5 -5 -5 -6 -8 -8 -9 -9 -10 -10 -11 -11 -12 -13 -15 -15 -14 -16 -16 -16 -19 -22 -24 -26 -28 -28 -26 -25 -24 -22 -19 -16
3 3 3 -2 -1 -2 -1 2 -2 -3 -4 -4 -5 -3 -5 -6 -8 -8 -9 -10 -11 -13 -13 -14 -13 -14 -17 -17 -14 -15 -16 -17 -19 -21 -22 -22 -23 -24 -25 -25 -25 -22 -21 -21
3 3 1 -1 -2 -2 2 -0 -3 -3 -4 -5 -4 -4 -5 -7 -8 -9 -9 -10 -12 -17 -22 -21 -16 -14 -18 -19 -14 -14 -17 -21 -22 -22 -20 -20 -20 -21 -22 -23 -23 -22 -21 -21
1 3 1 -1 -2 0 -2 -3 -3 -3 -4 -4 -4 -4 -7 -8 -9 -7 -10 -12 -15 -21 -28 -30 -27 -21 -20 -22 -16 -16 -19 -21 -20 -20 -21 -23 -25 -23 -21 -21 -21 -21 -23 -22
-1 -0 -1 -1 -0 -1 -3 -3 -3 -4 -4 -4 -5 -7 -8 -9 -9 -7 -12 -14 -17 -25 -32 -33 -33 -30 -25 -21 -23 -23 -23 -21 -20 -20 -21 -20 -20 -21 -22 -20 -19 -19 -20 -20
1 -1 -1 -0 -1 -2 -3 -3 -3 -4 -4 -4 -4 -6 -8 -10 -8 -8 -12 -15 -18 -28 -33 -34 -32 -28 -26 -23 -24 -28 -26 -22 -20 -20 -20 -22 -21 -20 -19 -17 -15 -17 -21 -22
-0 -2 -1 -0 -1 -2 -3 -3 -4 -4 -3 -4 -5 -9 -11 -9 -7 -7 -12 -15 -20 -30 -32 -33 -32 -30 -26 -24 -24 -26 -25 -23 -24 -24 -25 -24 -21 -23 -23 -17 -13 -16 -18 -19
-1 -3 -3 -3 -1 -2 -3 -4 -4 -4 -4 -5 -6 -9 -9 -7 -7 -10 -15 -17 -25 -29 -30 -31 -32 -31 -29 -27 -27 -25 -25 -23 -22 -22 -23 -23 -24 -24 -22 -19 -15 -15 -20 -19
-3 -3 -4 -2 -2 -2 -4 -4 -4 -5 -5 -6 -6 -7 -7 -7 -9 -15 -16 -20 -28 -28 -28 -30 -31 -32 -30 -28 -26 -24 -24 -23 -21 -19 -19 -20 -21 -23 -25 -20 -19 -19 -19 -18
-2 -3 -2 -2 -3 -3 -3 -4 -5 -5 -6 -6 -6 -7 -7 -8 -14 -15 -18 -25 -27 -27 -26 -28 -31 -32 -30 -27 -23 -20 -19 -19 -18 -16 -18 -19 -20 -21 -20 -20 -22 -23 -22 -21
-3 -3 -3 -2 -3 -4 -3 -4 -4 -5 -5 -6 -6 -6 -7 -14 -14 -16 -19 -20 -24 -25 -23 -24 -32 -31 -27 -25 -22 -20 -19 -18 -18 -18 -18 -18 -18 -19 -19 -20 -21 -21 -21 -22
-3 -3 -3 -3 -3 -4 -4 -4 -5 -6 -6 -6 -6 -9 -13 -13 -15 -18 -19 -18 -20 -23 -18 -26 -30 -27 -24 -20 -19 -18 -16 -16 -17 -17 -18 -17 -16 -16 -17 -17 -17 -17 -17 -17
-3 -3 -3 -3 -4 -4 -4 -5 -6 -6 -6 -9 -11 -12 -12 -14 -19 -23 -22 -23 -23 -16 -19 -25 -26 -23 -20 -19 -18 -17 -17 -16 -16 -19 -20 -18 -16 -16 -16 -16 -16 -17 -18 -18
-3 -4 -4 -4 -4 -4 -5 -6 -8 -8 -9 -10 -10 -11 -14 -18 -23 -26 -25 -24 -16 -15 -20 -23 -23 -22 -20 -18 -17 -16 -16 -16 -18 -21 -20 -19 -18 -18 -17 -17 -17 -18 -18 -19
-4 -4 -4 -4 -4 -5 -6 -8 -8 -9 -10 -10 -11 -13 -17 -21 -24 -24 -25 -18 -14 -14 -18 -19 -19 -18 -19 -18 -17 -17 -18 -20 -21 -20 -20 -19 -18 -18 -18 -18 -18 -18 -19 -19
-3 -4 -4 -4 -5 -7 -8 -9 -9 -10 -10 -11 -13 -15 -19 -19 -23 -24 -22 -14 -13 -15 -16 -16 -15 -16 -18 -19 -18 -20 -22 -25 -27 -27 -24 -23 -22 -22 -21 -20 -20 -20 -20 -20
-4 -5 -6 -7 -7 -8 -8 -8 -9 -10 -10 -11 -13 -17 -19 -23 -23 -20 -15 -14 -14 -14 -14 -14 -14 -15 -18 -20 -22 -24 -28 -30 -30 -30 -30 -30 -29 -28 -27 -26 -25 -25 -24 -24
-5 -6 -6 -7 -7 -7 -7 -7 -8 -9 -10 -11 -15 -19 -23 -21 -17 -15 -13 -13 -14 -14 -14 -14 -15 -17 -19 -21 -25 -29 -30 -31 -31 -31 -30 -30 -30 -29 -29 -28 -27 -27 -27 -26
-6 -6 -6 -6 -6 -6 -6 -7 -8 -9 -10 -14 -18 -22 -21 -17 -15 -14 -14 -14 -14 -14 -14 -15 -17 -18 -21 -26 -30 -31 -31 -31 -31 -30 -30 -29 -29 -28 -28 -28 -27 -27 -27 -27
-6 -6 -6 -5 -5 -5 -6 -8 -10 -12 -15 -18 -20 -20 -19 -16 -15 -13 -14 -14 -14 -15 -16 -17 -19 -22 -29 -31 -31 -31 -31 -31 -30 -30 -29 -29 -28 -28 -28 -27 -27 -27 -27 -27
-5 -4 -4 -5 -6 -7 -8 -10 -12 -16 -18 -20 -19 -18 -16 -15 -15 -15 -14 -14 -15 -16 -18 -20 -24 -30 -31 -31 -31 -31 -31 -30 -29 -29 -28 -28 -28 -28 -28 -28 -27 -27 -27 -27
-4 -5 -5 -6 -7 -7 -9 -12 -15 -17 -19 -19 -17 -16 -14 -14 -13 -13 -13 -14 -15 -17 -20 -25 -31 -31 -31 -31 -31 -31 -30 -29 -28 -27 -27 -27 -28 -28 -28 -28 -28 -28 -28 -28
-5 -6 -7 -7 -8 -10 -13 -15 -17 -18 -20 -18 -17 -14 -12 -12 -12 -13 -14 -15 -16 -19 -22 -29 -31 -31 -31 -31 -30 -30 -29 -28 -27 -27 -27 -27 -28 -28 -27 -28 -28 -28 -28 -28

GFSNGP_850_dewp_138.txt.gz
Dewpoint
1 1 2 1 1 0 0 1 3 0 0 -2 -1 -2 -3 -4 -6 -6 -8 -8 -9 -10 -10 -12 -13 -16 -18 -21 -23 -26 -27 -25 -22 -20 -10 -6 -3 -3 -3 -2 -3 -5 -5 -5
-1 -1 -1 -0 -2 -2 -2 -1 0 -1 -0 -1 -2 -2 -4 -5 -6 -7 -8 -9 -9 -10 -11 -11 -12 -14 -17 -20 -20 -23 -26 -27 -27 -26 -25 -24 -19 -13 -4 -3 -4 -2 -2 -4
1 -2 -1 -0 -3 -2 -1 -0 -0 1 -0 -2 -3 -4 -4 -5 -6 -7 -8 -9 -9 -10 -11 -11 -12 -13 -16 -18 -20 -21 -23 -25 -25 -26 -27 -26 -26 -25 -22 -18 -10 -7 -5 -4
1 0 1 -4 -2 -1 0 1 0 -1 -2 -3 -3 -4 -5 -5 -6 -7 -9 -9 -10 -10 -11 -11 -12 -14 -15 -17 -19 -20 -21 -22 -22 -23 -23 -25 -27 -28 -28 -27 -26 -23 -23 -21
3 1 -2 -3 -3 1 2 1 -0 -1 -3 -4 -4 -5 -5 -6 -7 -8 -9 -9 -10 -11 -11 -12 -14 -16 -16 -18 -19 -20 -19 -20 -21 -22 -22 -23 -25 -26 -25 -27 -27 -29 -26 -29
1 2 2 -2 -1 -2 -1 1 -2 -3 -4 -5 -5 -3 -5 -6 -8 -8 -9 -10 -11 -14 -16 -15 -15 -17 -20 -20 -19 -19 -18 -18 -19 -20 -22 -22 -23 -24 -26 -28 -28 -29 -29 -30
1 2 1 -2 -2 -2 2 -1 -3 -3 -4 -5 -4 -5 -5 -7 -8 -9 -9 -11 -14 -19 -24 -23 -18 -18 -23 -21 -20 -19 -19 -20 -21 -21 -20 -20 -21 -23 -23 -26 -30 -31 -28 -26
2 3 2 -1 -2 0 -2 -3 -3 -3 -4 -4 -4 -4 -6 -7 -8 -9 -10 -13 -18 -25 -31 -30 -23 -21 -23 -25 -21 -20 -22 -22 -23 -24 -24 -25 -24 -22 -22 -25 -26 -24 -22 -21
0 -0 -2 -2 -1 -1 -2 -3 -3 -3 -4 -4 -4 -6 -7 -8 -9 -6 -12 -15 -21 -31 -33 -32 -27 -22 -23 -24 -25 -23 -24 -24 -23 -23 -23 -23 -24 -22 -17 -19 -21 -20 -19 -16
0 -1 -1 -1 -1 -1 -2 -3 -3 -4 -4 -4 -5 -6 -8 -9 -7 -8 -14 -16 -23 -32 -33 -31 -28 -26 -24 -24 -26 -25 -24 -25 -25 -25 -23 -24 -23 -18 -13 -14 -17 -19 -20 -19
0 -1 -2 -2 -1 -2 -3 -3 -4 -4 -4 -4 -5 -7 -7 -9 -6 -7 -11 -16 -25 -31 -32 -32 -29 -27 -26 -26 -26 -27 -26 -25 -25 -26 -27 -27 -25 -24 -21 -16 -14 -15 -17 -16
0 -2 -2 -3 -1 -1 -3 -3 -4 -4 -4 -4 -4 -6 -8 -7 -6 -7 -14 -17 -27 -30 -31 -32 -31 -29 -28 -28 -28 -28 -29 -27 -27 -27 -27 -28 -28 -27 -25 -25 -24 -24 -21 -22
-1 -1 -3 -3 -1 -1 -2 -4 -4 -4 -4 -5 -7 -7 -8 -6 -7 -13 -15 -21 -28 -29 -29 -32 -33 -32 -30 -29 -27 -28 -29 -29 -28 -27 -26 -26 -27 -28 -27 -25 -25 -27 -28 -27
-2 -3 -2 -2 -2 -2 -3 -4 -4 -5 -5 -6 -7 -7 -6 -7 -10 -14 -16 -23 -27 -27 -28 -31 -33 -34 -33 -30 -28 -29 -28 -28 -28 -28 -28 -25 -22 -20 -20 -22 -24 -25 -23 -22
-2 -3 -3 -3 -2 -3 -4 -4 -5 -5 -6 -6 -6 -6 -7 -7 -13 -14 -18 -26 -27 -25 -24 -30 -33 -32 -30 -27 -26 -25 -25 -23 -21 -21 -23 -23 -23 -19 -19 -19 -20 -20 -21 -22
-2 -3 -3 -3 -3 -3 -3 -5 -5 -6 -6 -6 -6 -6 -7 -12 -14 -15 -19 -20 -24 -24 -21 -29 -30 -27 -25 -23 -23 -22 -20 -18 -18 -19 -21 -21 -20 -19 -19 -18 -18 -18 -17 -18
-3 -3 -3 -3 -3 -3 -4 -4 -5 -5 -6 -6 -6 -7 -10 -13 -14 -16 -18 -17 -21 -20 -20 -27 -27 -25 -23 -22 -20 -19 -17 -18 -19 -21 -22 -21 -18 -17 -17 -17 -17 -17 -17 -18
-3 -3 -4 -3 -4 -4 -5 -5 -5 -5 -6 -6 -7 -10 -12 -13 -14 -19 -19 -21 -22 -16 -20 -25 -24 -23 -22 -21 -19 -19 -19 -21 -23 -25 -22 -20 -19 -18 -18 -18 -18 -19 -19 -20
-3 -4 -4 -4 -4 -4 -4 -5 -6 -6 -7 -9 -10 -11 -11 -14 -19 -25 -25 -24 -16 -15 -18 -19 -18 -18 -18 -20 -20 -22 -24 -26 -30 -29 -28 -26 -24 -23 -24 -25 -25 -25 -24 -24
-4 -4 -4 -4 -4 -4 -5 -6 -8 -8 -9 -10 -10 -11 -13 -17 -23 -24 -24 -19 -14 -14 -15 -16 -16 -16 -17 -20 -22 -24 -27 -32 -32 -32 -31 -30 -30 -31 -31 -30 -29 -29 -28 -27
-4 -4 -4 -4 -4 -5 -7 -8 -9 -9 -10 -10 -11 -13 -16 -20 -22 -23 -22 -16 -14 -14 -14 -15 -15 -16 -18 -21 -25 -28 -33 -33 -32 -32 -32 -32 -31 -31 -30 -30 -29 -29 -28 -28
-4 -5 -6 -6 -7 -7 -8 -8 -9 -9 -10 -11 -12 -14 -17 -19 -22 -21 -15 -14 -14 -14 -14 -14 -15 -17 -20 -25 -29 -33 -33 -32 -32 -32 -31 -31 -31 -30 -29 -29 -28 -28 -28 -28
-6 -6 -6 -6 -7 -7 -7 -8 -8 -8 -9 -11 -11 -15 -18 -22 -21 -17 -15 -14 -13 -14 -14 -15 -18 -20 -23 -30 -32 -33 -32 -32 -32 -31 -31 -30 -29 -28 -28 -28 -28 -28 -28 -28
-6 -6 -6 -6 -6 -6 -6 -7 -7 -8 -9 -10 -13 -18 -21 -19 -15 -13 -13 -13 -14 -14 -16 -18 -19 -23 -30 -32 -32 -32 -32 -32 -31 -30 -29 -28 -28 -28 -28 -28 -28 -28 -28 -28
-6 -6 -6 -6 -5 -5 -6 -7 -8 -9 -11 -15 -19 -20 -15 -13 -14 -14 -14 -14 -14 -15 -17 -19 -22 -29 -32 -32 -32 -32 -31 -31 -30 -29 -27 -27 -27 -28 -28 -28 -27 -28 -28 -28
-5 -4 -4 -5 -5 -6 -7 -8 -10 -12 -16 -18 -18 -16 -14 -14 -14 -15 -14 -14 -14 -15 -18 -20 -25 -31 -32 -31 -31 -31 -30 -29 -28 -27 -27 -27 -27 -27 -27 -27 -27 -27 -28 -28
-5 -5 -5 -6 -7 -7 -8 -9 -11 -15 -17 -19 -20 -17 -15 -14 -13 -13 -13 -14 -15 -16 -19 -23 -30 -31 -31 -31 -31 -30 -29 -28 -27 -27 -27 -27 -27 -27 -27 -27 -27 -27 -27 -28

GFSNGP_850_dewp_141.txt.gz
Dewpoint
1 0 0 0 1 -0 -0 0 2 0 -0 -1 -2 0 -1 -3 -5 -6 -8 -7 -9 -10 -11 -14 -17 -20 -22 -24 -27 -29 -30 -30 -29 -28 -26 -25 -15 -5 -4 -3 -4 -5 -4 -4
0 -1 -1 -0 -0 -1 -1 -1 -1 -1 -1 -3 -2 -2 -2 -4 -5 -6 -7 -7 -9 -10 -11 -14 -16 -18 -20 -24 -26 -28 -28 -28 -28 -29 -30 -31 -31 -27 -25 -17 -9 -10 -8 -7
-0 -2 -1 -0 -1 -1 -3 -3 -2 -1 -2 -1 -1 -2 -3 -4 -5 -6 -8 -9 -10 -10 -11 -13 -15 -17 -20 -23 -25 -26 -27 -27 -27 -28 -31 -30 -30 -32 -31 -27 -24 -24 -23 -21
-0 0 0 -2 -5 -3 -2 -2 -2 -1 -1 -2 -2 -3 -3 -4 -5 -6 -8 -9 -10 -10 -11 -12 -15 -17 -19 -23 -25 -25 -26 -27 -28 -27 -30 -32 -32 -31 -28 -25 -27 -28 -27 -25
3 -0 -2 -3 -5 -2 1 -1 -3 -0 -2 -4 -4 -4 -5 -5 -6 -7 -9 -9 -10 -11 -12 -13 -16 -18 -19 -23 -23 -24 -24 -25 -25 -27 -26 -28 -30 -31 -29 -27 -28 -30 -30 -31
2 1 -0 -3 -3 -1 -1 -0 -2 -2 -3 -4 -4 -1 -3 -6 -7 -8 -9 -10 -11 -14 -15 -14 -17 -18 -20 -22 -23 -22 -23 -24 -24 -25 -25 -24 -25 -27 -28 -30 -30 -30 -33 -34
1 1 -2 -3 -2 -2 1 -0 -2 -3 -3 -4 -3 -4 -5 -6 -8 -8 -9 -11 -15 -19 -19 -18 -18 -20 -22 -22 -22 -21 -22 -24 -25 -26 -28 -24 -23 -24 -27 -29 -30 -30 -30 -31
-0 1 0 -2 -1 1 -1 -2 -3 -3 -3 -4 -4 -5 -6 -7 -8 -9 -10 -13 -19 -26 -26 -22 -20 -22 -24 -24 -21 -22 -24 -26 -26 -27 -27 -22 -16 -15 -21 -25 -27 -23 -22 -21
-1 -1 -2 -3 -2 -3 -3 -2 -3 -3 -3 -4 -4 -5 -6 -8 -9 -10 -12 -16 -25 -31 -29 -24 -22 -23 -25 -24 -23 -23 -25 -26 -27 -29 -29 -26 -17 -13 -13 -14 -14 -14 -14 -14
-1 -1 -2 -2 -3 -2 -2 -2 -2 -3 -4 -4 -4 -6 -7 -9 -10 -8 -13 -18 -27 -31 -28 -25 -23 -24 -25 -26 -26 -26 -26 -26 -28 -29 -28 -27 -21 -15 -14 -14 -14 -14 -15 -15
1 -1 -1 -2 -2 -1 -1 -2 -3 -4 -4 -4 -5 -6 -7 -8 -7 -8 -14 -18 -28 -31 -29 -26 -25 -25 -26 -26 -27 -28 -28 -29 -29 -29 -28 -26 -26 -23 -18 -17 -16 -15 -15 -17
0 -2 -2 -2 -2 -2 -2 -3 -4 -4 -4 -4 -5 -6 -6 -7 -6 -8 -12 -18 -28 -31 -30 -28 -26 -26 -26 -27 -28 -28 -29 -29 -29 -28 -28 -27 -25 -24 -24 -24 -24 -25 -24 -19
-1 -2 -2 -1 -2 -2 -2 -3 -4 -4 -4 -4 -6 -6 -6 -7 -7 -7 -15 -20 -29 -30 -31 -30 -29 -28 -27 -27 -28 -28 -28 -28 -28 -28 -27 -27 -27 -26 -25 -24 -24 -24 -24 -24
-1 -1 -2 -2 -2 -1 -2 -3 -4 -4 -4 -4 -5 -5 -6 -7 -7 -13 -16 -23 -28 -28 -30 -31 -31 -29 -28 -26 -26 -26 -25 -25 -24 -24 -26 -25 -24 -24 -23 -24 -25 -26 -25 -24
-1 -2 -2 -3 -2 -2 -3 -4 -4 -5 -5 -6 -7 -8 -7 -6 -8 -14 -16 -24 -27 -26 -26 -31 -32 -30 -27 -25 -24 -23 -23 -24 -25 -25 -27 -27 -26 -24 -23 -22 -22 -23 -24 -25
-2 -2 -3 -3 -2 -2 -3 -4 -5 -5 -5 -6 -7 -7 -6 -7 -12 -14 -18 -25 -26 -26 -24 -30 -30 -28 -25 -24 -23 -22 -23 -24 -25 -28 -30 -29 -28 -26 -25 -25 -23 -21 -21 -23
-2 -3 -3 -3 -3 -3 -4 -4 -5 -6 -6 -6 -7 -7 -7 -8 -14 -15 -19 -21 -22 -23 -22 -27 -27 -25 -24 -24 -23 -23 -23 -24 -27 -31 -30 -29 -28 -26 -25 -24 -24 -24 -24 -23
-3 -3 -3 -3 -3 -3 -4 -4 -5 -6 -6 -6 -6 -6 -7 -11 -13 -15 -18 -18 -20 -19 -20 -25 -25 -23 -21 -22 -23 -23 -24 -26 -30 -32 -30 -30 -29 -28 -28 -28 -29 -29 -28 -28
-2 -3 -4 -3 -3 -3 -4 -4 -5 -5 -5 -6 -6 -6 -8 -13 -13 -15 -17 -18 -21 -17 -20 -21 -20 -18 -18 -20 -23 -24 -26 -30 -32 -31 -31 -31 -30 -30 -31 -31 -30 -29 -29 -29
-3 -4 -4 -4 -4 -4 -4 -5 -5 -5 -6 -6 -7 -9 -12 -12 -14 -18 -20 -22 -16 -16 -17 -17 -16 -17 -18 -21 -24 -27 -30 -32 -32 -32 -32 -31 -31 -31 -30 -29 -29 -29 -29 -29
-4 -4 -4 -4 -4 -4 -4 -5 -6 -7 -8 -9 -10 -10 -11 -13 -18 -23 -22 -18 -15 -14 -15 -15 -15 -16 -18 -21 -26 -30 -33 -32 -32 -32 -32 -31 -31 -30 -29 -29 -29 -29 -29 -28
-4 -4 -4 -4 -4 -5 -6 -7 -8 -9 -9 -10 -10 -11 -12 -16 -21 -22 -20 -17 -15 -14 -14 -14 -15 -17 -19 -24 -29 -32 -32 -32 -32 -31 -31 -30 -29 -28 -28 -28 -28 -28 -28 -28
-4 -5 -6 -6 -7 -7 -8 -8 -9 -9 -9 -10 -11 -12 -14 -18 -20 -22 -19 -14 -13 -14 -14 -15 -16 -18 -21 -28 -31 -32 -32 -32 -31 -31 -30 -29 -28 -28 -28 -28 -28 -28 -28 -28
-6 -6 -6 -7 -7 -7 -8 -7 -7 -8 -8 -9 -11 -12 -15 -18 -21 -17 -14 -13 -14 -14 -14 -16 -18 -20 -26 -31 -32 -32 -31 -31 -31 -30 -29 -28 -28 -28 -28 -28 -28 -28 -28 -28
-6 -6 -6 -6 -6 -6 -6 -6 -7 -8 -9 -10 -11 -14 -18 -19 -16 -15 -14 -14 -14 -14 -15 -17 -19 -22 -29 -32 -31 -31 -31 -30 -30 -29 -28 -28 -28 -28 -27 -27 -27 -28 -28 -28
-6 -6 -5 -6 -5 -5 -6 -6 -7 -8 -9 -10 -14 -18 -19 -14 -14 -15 -14 -14 -14 -14 -15 -18 -21 -25 -31 -31 -31 -31 -30 -30 -29 -28 -28 -28 -28 -28 -27 -27 -27 -28 -28 -28
-5 -4 -4 -5 -6 -6 -6 -7 -8 -9 -11 -15 -18 -18 -15 -14 -14 -14 -14 -13 -14 -15 -16 -20 -23 -30 -31 -31 -31 -30 -30 -29 -29 -28 -28 -28 -28 -28 -28 -27 -27 -28 -28 -28

GFSNGP_850_dewp_144.txt.gz
Dewpoint
-4 -5 -4 -4 -4 -4 -5 -4 -1 1 -2 -5 -6 -4 -5 -1 -2 -4 -5 -6 -8 -10 -12 -16 -14 -13 -11 -11 -13 -12 -12 -12 -15 -23 -29 -29 -26 -24 -25 -23 -20 -15 -7 -4
2 -3 -4 -2 1 -2 -2 -3 -3 -4 -3 -6 -5 -2 -1 -1 -3 -5 -5 -6 -8 -8 -8 -12 -10 -11 -11 -11 -13 -12 -13 -13 -13 -13 -14 -20 -21 -23 -28 -30 -30 -29 -25 -24
-3 -7 -5 -2 1 1 -3 -6 -5 -2 -4 -5 -3 -1 -1 -2 -4 -4 -6 -7 -8 -8 -9 -10 -11 -12 -12 -11 -12 -12 -12 -13 -13 -13 -13 -14 -12 -11 -12 -23 -34 -33 -31 -30
-3 -4 -0 -4 -7 -8 -6 -6 -6 -6 -6 -6 -2 -1 -1 -2 -3 -5 -7 -7 -8 -10 -11 -13 -12 -14 -14 -13 -12 -19 -17 -14 -15 -13 -13 -14 -13 -12 -11 -12 -20 -26 -31 -31
-0 -3 -5 -6 -7 -7 -5 -3 -5 -3 -3 -2 -2 -3 -3 -3 -4 -5 -7 -8 -8 -10 -13 -15 -17 -13 -20 -24 -17 -23 -26 -27 -22 -21 -18 -14 -16 -12 -11 -11 -12 -17 -24 -28
-1 2 -1 -7 -8 -4 -4 -1 -3 -3 -2 -2 -3 1 -0 -4 -5 -6 -7 -9 -10 -10 -11 -11 -11 -12 -18 -25 -26 -24 -24 -27 -25 -21 -23 -23 -13 -14 -12 -11 -12 -12 -15 -28
1 0 -3 -8 -4 -2 1 0 -2 -2 -2 -2 -2 -2 -2 -4 -5 -7 -9 -11 -12 -13 -13 -13 -12 -12 -12 -12 -21 -22 -16 -16 -25 -22 -14 -14 -16 -12 -13 -12 -12 -12 -12 -13
-2 -1 -0 -3 -1 -1 -1 -1 -2 -2 -2 -1 -2 -3 -4 -5 -7 -9 -11 -13 -15 -15 -14 -13 -14 -14 -14 -13 -14 -14 -15 -18 -19 -18 -13 -11 -11 -12 -12 -12 -12 -12 -12 -11
-4 -5 -4 -2 -4 -3 -2 -3 -2 -0 -2 -1 -2 -3 -5 -6 -8 -11 -13 -16 -18 -17 -14 -14 -14 -15 -14 -14 -15 -15 -17 -17 -18 -17 -16 -15 -14 -13 -13 -12 -13 -13 -12 -12
-2 -2 -6 -6 -4 -1 -1 -1 -1 -1 -1 -2 -2 -4 -5 -7 -9 -12 -16 -19 -20 -17 -15 -14 -15 -19 -16 -17 -15 -16 -17 -19 -19 -22 -18 -17 -16 -15 -14 -14 -14 -13 -13 -13
-1 -3 -3 -3 -2 -1 -0 -1 -2 -2 -3 -3 -3 -5 -7 -8 -10 -11 -15 -19 -20 -18 -15 -15 -17 -19 -23 -18 -16 -16 -17 -18 -18 -18 -18 -18 -18 -20 -15 -18 -17 -14 -14 -14
0 -4 -3 -2 -1 -2 -2 -2 -2 -3 -3 -4 -4 -6 -7 -8 -7 -11 -15 -19 -21 -18 -16 -17 -19 -22 -25 -26 -18 -17 -18 -18 -21 -16 -16 -17 -17 -16 -19 -23 -23 -22 -16 -16
-4 -4 -2 -1 -2 -2 -2 -2 -3 -3 -4 -4 -5 -6 -7 -6 -8 -11 -14 -19 -21 -18 -18 -20 -24 -27 -27 -28 -27 -26 -22 -20 -17 -17 -16 -16 -15 -14 -14 -14 -15 -18 -22 -23
-7 -3 -1 -1 -1 -2 -2 -3 -3 -4 -5 -5 -6 -6 -6 -6 -9 -11 -15 -19 -21 -23 -23 -27 -29 -28 -28 -27 -26 -25 -25 -26 -23 -24 -22 -16 -14 -14 -14 -14 -14 -14 -15 -19
-5 -2 -2 -1 -2 -2 -2 -3 -3 -4 -6 -6 -6 -5 -6 -8 -9 -12 -16 -21 -27 -27 -29 -31 -30 -28 -27 -25 -24 -23 -20 -21 -22 -20 -21 -22 -15 -15 -15 -15 -15 -15 -16 -18
-3 -1 -2 -1 -2 -2 -3 -3 -4 -5 -6 -6 -6 -6 -7 -8 -10 -13 -16 -22 -26 -26 -27 -30 -29 -27 -25 -23 -22 -21 -17 -24 -27 -25 -19 -15 -15 -15 -16 -16 -16 -16 -17 -18
-1 -1 -2 -1 -2 -2 -3 -3 -4 -5 -5 -6 -7 -7 -8 -8 -10 -14 -17 -25 -25 -24 -23 -27 -27 -25 -24 -23 -22 -20 -18 -23 -30 -26 -25 -21 -17 -17 -18 -18 -17 -18 -18 -20
-2 -2 -3 -2 -2 -2 -3 -3 -4 -5 -6 -6 -7 -7 -7 -7 -12 -14 -18 -23 -22 -21 -21 -24 -25 -24 -22 -22 -23 -24 -26 -28 -31 -31 -26 -30 -32 -29 -24 -21 -19 -20 -20 -20
-2 -2 -2 -2 -2 -2 -3 -4 -5 -5 -6 -6 -6 -7 -7 -7 -12 -14 -17 -19 -19 -20 -21 -22 -22 -19 -19 -20 -23 -25 -28 -31 -32 -32 -31 -32 -30 -30 -27 -26 -23 -21 -22 -22
-2 -3 -3 -3 -3 -3 -4 -4 -4 -5 -6 -6 -6 -6 -7 -8 -13 -14 -16 -17 -16 -12 -19 -20 -18 -17 -18 -20 -23 -27 -31 -33 -32 -31 -33 -32 -31 -27 -29 -27 -28 -27 -27 -26
-3 -4 -4 -4 -4 -4 -4 -4 -5 -5 -5 -6 -6 -6 -7 -12 -13 -14 -16 -14 -18 -16 -16 -16 -15 -16 -17 -20 -24 -29 -32 -33 -32 -32 -32 -31 -30 -28 -27 -26 -26 -26 -25 -25
-4 -4 -4 -4 -4 -4 -4 -5 -5 -6 -7 -7 -7 -9 -11 -12 -13 -16 -18 -12 -18 -15 -14 -14 -14 -15 -18 -21 -26 -31 -32 -32 -32 -32 -31 -30 -29 -28 -27 -27 -28 -27 -27 -27
-4 -4 -4 -4 -4 -4 -5 -6 -7 -8 -9 -9 -10 -10 -11 -12 -16 -18 -15 -17 -16 -14 -14 -14 -14 -16 -18 -22 -29 -32 -32 -32 -32 -31 -30 -29 -28 -28 -28 -28 -28 -28 -28 -28
-4 -5 -5 -5 -6 -7 -8 -8 -8 -9 -9 -9 -10 -11 -12 -15 -17 -13 -13 -17 -14 -13 -14 -14 -15 -18 -20 -25 -31 -32 -32 -31 -31 -30 -29 -28 -28 -28 -28 -28 -28 -28 -28 -28
-6 -6 -7 -7 -7 -8 -8 -8 -8 -8 -8 -8 -10 -12 -14 -15 -15 -17 -17 -14 -14 -13 -14 -15 -16 -18 -22 -28 -31 -31 -31 -31 -30 -29 -29 -28 -28 -28 -28 -28 -28 -28 -28 -28
-6 -6 -6 -6 -7 -6 -7 -7 -7 -8 -8 -9 -11 -12 -14 -17 -19 -15 -14 -13 -14 -14 -14 -15 -17 -20 -25 -31 -31 -31 -31 -30 -30 -29 -28 -29 -29 -29 -28 -28 -28 -28 -28 -28
-6 -6 -6 -6 -6 -6 -6 -6 -7 -8 -9 -10 -11 -12 -17 -18 -14 -15 -14 -13 -14 -14 -14 -16 -19 -23 -29 -31 -31 -31 -30 -30 -29 -29 -29 -29 -29 -28 -28 -28 -28 -27 -27 -28

GFSNGP_850_dewp_147.txt.gz
Dewpoint
-7 -8 -7 -8 -6 -6 -6 -5 -3 -1 -5 -7 -8 -7 -7 -3 0 -0 -2 -3 -4 -5 -9 -15 -7 -9 -10 -10 -10 -11 -11 -11 -10 -11 -12 -17 -15 -17 -25 -28 -26 -21 -23 -27
1 -4 -7 -5 -1 -5 -5 -5 -4 -5 -5 -8 -9 -3 -3 -0 0 -1 -3 -4 -5 -5 -6 -8 -10 -11 -10 -10 -10 -11 -11 -12 -11 -12 -11 -10 -9 -9 -11 -18 -27 -28 -26 -31
-2 -8 -8 -5 2 -0 -6 -7 -7 -5 -8 -9 -6 -5 -1 -0 -1 -2 -3 -4 -6 -7 -8 -8 -10 -10 -10 -10 -10 -10 -11 -12 -11 -11 -11 -11 -11 -10 -10 -11 -13 -19 -21 -30
-4 -6 -2 -4 -7 -9 -8 -9 -10 -9 -3 -4 -2 -2 -0 0 -1 -3 -4 -5 -6 -7 -7 -8 -9 -9 -10 -10 -10 -11 -12 -10 -10 -11 -11 -11 -10 -10 -10 -10 -11 -12 -18 -17
-2 -4 -6 -8 -9 -8 -7 -6 -8 -4 -5 -4 -2 -2 -1 -1 -2 -3 -5 -6 -5 -7 -12 -12 -9 -10 -10 -9 -10 -12 -24 -26 -11 -10 -10 -10 -10 -10 -10 -10 -10 -11 -13 -28
-2 -1 -2 -7 -10 -7 -6 -3 -4 -4 -3 -3 -3 0 3 -1 -3 -4 -6 -7 -7 -8 -9 -9 -10 -10 -10 -19 -24 -13 -16 -22 -26 -13 -13 -11 -10 -10 -10 -10 -10 -10 -11 -14
-1 -1 -3 -9 -7 -6 -2 1 -1 -2 -3 -3 -1 -0 -1 -3 -3 -5 -7 -9 -9 -11 -12 -12 -12 -12 -11 -10 -18 -14 -13 -13 -15 -12 -11 -10 -10 -10 -11 -10 -11 -11 -10 -11
-2 -1 -1 -9 -5 -4 -5 -4 -4 -3 -2 -0 -0 -0 -1 -3 -4 -7 -9 -10 -12 -13 -13 -14 -14 -14 -14 -13 -14 -14 -15 -15 -15 -14 -13 -12 -11 -11 -11 -11 -11 -11 -10 -11
-7 -4 -5 -4 -4 -5 -5 -4 -3 -2 -1 1 -1 -1 -2 -4 -6 -8 -11 -12 -14 -14 -14 -14 -15 -15 -15 -14 -14 -15 -17 -17 -17 -17 -17 -16 -15 -14 -12 -12 -12 -11 -12 -11
-4 -4 -6 -7 -6 -6 -5 -2 -1 -1 -1 0 1 -1 -3 -4 -7 -9 -12 -15 -16 -16 -15 -14 -14 -15 -15 -14 -15 -16 -18 -18 -18 -18 -18 -17 -17 -15 -15 -15 -13 -13 -12 -12
-3 -5 -6 -5 -5 -2 -2 -1 -0 -1 -2 -1 -1 -2 -4 -6 -7 -10 -13 -16 -17 -17 -16 -15 -15 -15 -15 -15 -16 -17 -18 -18 -17 -17 -17 -17 -16 -19 -15 -22 -25 -16 -15 -14
1 -4 -4 -4 -2 -1 -1 -1 -1 -2 -2 -2 -2 -3 -5 -6 -8 -10 -13 -16 -17 -17 -16 -16 -15 -15 -16 -16 -16 -17 -18 -17 -20 -15 -15 -15 -15 -15 -14 -14 -15 -15 -18 -25
-6 -7 -5 -4 -0 -0 -1 -0 -1 -2 -2 -3 -3 -4 -6 -7 -7 -9 -13 -16 -18 -17 -15 -15 -15 -15 -16 -16 -16 -16 -15 -16 -14 -14 -13 -13 -13 -13 -12 -12 -13 -13 -14 -16
-8 -7 -6 -6 -4 -1 -1 -1 -2 -3 -3 -3 -4 -5 -6 -6 -7 -11 -13 -15 -18 -17 -15 -15 -14 -25 -28 -28 -28 -28 -27 -26 -13 -12 -12 -13 -13 -13 -13 -13 -13 -13 -14 -15
-9 -8 -8 -7 -2 -1 -1 -2 -2 -3 -4 -4 -5 -6 -5 -5 -8 -10 -13 -17 -19 -16 -15 -16 -24 -28 -28 -27 -27 -25 -13 -14 -18 -13 -13 -15 -13 -13 -13 -13 -13 -14 -14 -15
-9 -8 -5 -2 -2 -2 -2 -2 -2 -3 -4 -5 -5 -4 -5 -6 -8 -11 -14 -17 -17 -16 -15 -24 -29 -29 -27 -26 -26 -21 -14 -20 -28 -14 -14 -14 -14 -14 -14 -14 -15 -15 -15 -17
-8 -5 -1 -2 -1 -1 -2 -2 -2 -3 -5 -5 -5 -5 -6 -7 -10 -12 -15 -17 -17 -21 -26 -27 -29 -28 -26 -26 -24 -13 -13 -13 -24 -14 -14 -15 -15 -15 -15 -15 -15 -16 -16 -18
-7 -4 -2 -1 -1 -1 -2 -2 -3 -4 -4 -5 -5 -6 -7 -8 -9 -12 -15 -19 -23 -24 -23 -25 -27 -26 -25 -23 -20 -16 -16 -16 -17 -19 -16 -16 -25 -17 -16 -17 -17 -17 -18 -18
-5 -3 -1 -1 -1 -1 -2 -3 -3 -4 -5 -5 -6 -7 -7 -8 -8 -12 -15 -21 -23 -22 -18 -23 -24 -23 -22 -20 -21 -21 -21 -23 -20 -19 -20 -22 -17 -17 -17 -18 -19 -19 -19 -19
-2 -1 -1 -1 -1 -2 -2 -3 -4 -5 -5 -6 -7 -7 -7 -8 -8 -13 -16 -20 -18 -12 -18 -22 -21 -14 -19 -19 -21 -21 -26 -28 -26 -20 -25 -20 -18 -18 -19 -19 -20 -20 -20 -21
-1 -1 -1 -2 -2 -3 -3 -4 -4 -5 -6 -6 -6 -7 -7 -7 -8 -14 -16 -11 -12 -14 -16 -19 -14 -16 -16 -18 -21 -24 -29 -30 -29 -23 -23 -19 -19 -19 -20 -20 -21 -21 -21 -22
-2 -3 -3 -4 -3 -4 -4 -4 -4 -5 -5 -6 -6 -6 -7 -7 -12 -14 -13 -10 -12 -15 -16 -14 -14 -15 -16 -18 -22 -26 -30 -31 -30 -30 -27 -25 -23 -20 -21 -21 -22 -22 -23 -23
-4 -4 -4 -4 -4 -4 -4 -4 -5 -5 -6 -6 -6 -7 -7 -11 -12 -10 -11 -11 -12 -15 -13 -14 -15 -15 -16 -19 -23 -28 -32 -32 -31 -29 -26 -25 -24 -24 -23 -22 -26 -25 -24 -24
-4 -4 -4 -4 -4 -4 -5 -5 -6 -7 -8 -8 -8 -10 -11 -11 -10 -11 -11 -12 -13 -14 -14 -15 -14 -15 -17 -20 -24 -30 -31 -29 -28 -27 -25 -29 -25 -26 -26 -27 -28 -28 -27 -27
-4 -4 -4 -5 -5 -6 -7 -8 -8 -8 -9 -9 -10 -11 -11 -10 -10 -10 -12 -13 -15 -14 -14 -14 -15 -16 -18 -21 -26 -31 -31 -28 -29 -29 -29 -28 -28 -29 -28 -28 -29 -28 -28 -28
-6 -6 -6 -6 -6 -7 -8 -8 -8 -8 -9 -9 -9 -10 -10 -11 -11 -12 -15 -15 -14 -14 -14 -14 -15 -16 -20 -23 -29 -31 -31 -29 -30 -30 -30 -29 -29 -29 -29 -29 -28 -28 -28 -28
-6 -6 -6 -6 -7 -7 -7 -7 -8 -8 -9 -9 -10 -11 -11 -12 -13 -16 -15 -14 -13 -14 -14 -14 -15 -16 -21 -27 -31 -31 -31 -31 -30 -30 -29 -29 -29 -29 -28 -28 -28 -28 -28 -28

GFSNGP_850_dewp_153.txt.gz
Dewpoint
-4 -3 -4 -5 -5 -4 -5 -4 -2 -3 -2 -4 -6 -5 1 0 1 1 1 -0 -1 -4 -7 -10 -13 -12 -9 -9 -10 -10 -11 -11 -11 -11 -10 -10 -10 -10 -14 -26 -32 -36 -35 -31
-0 -4 -4 -4 -3 -4 -5 -5 -5 -5 -4 -6 -3 -0 1 1 1 0 -0 -1 -2 -3 -6 -10 -9 -10 -10 -10 -10 -11 -12 -11 -11 -11 -11 -10 -10 -10 -12 -18 -29 -34 -36 -35
1 -4 -3 -2 -3 -3 -5 -6 -5 -3 -5 -1 1 1 0 -0 1 1 -1 -2 -3 -3 -4 -8 -10 -10 -10 -10 -10 -10 -11 -11 -11 -12 -13 -11 -10 -10 -11 -13 -18 -23 -30 -31
1 -1 1 -3 -7 -8 -6 -6 -7 -7 -2 -0 -1 -0 -1 -0 -0 -1 -2 -2 -3 -4 -6 -9 -10 -10 -10 -10 -11 -13 -14 -14 -12 -13 -14 -13 -11 -11 -11 -11 -12 -15 -19 -25
1 1 -2 -4 -7 -7 -5 -5 -7 -2 -2 -3 -2 -0 -1 -1 -1 -1 -2 -2 -3 -5 -7 -8 -9 -10 -10 -10 -13 -20 -26 -23 -18 -19 -18 -15 -14 -13 -13 -11 -10 -11 -14 -19
0 0 0 -4 -8 -6 -6 -2 -2 -2 -2 -1 -1 -0 -1 -0 -1 -2 -3 -4 -5 -6 -7 -8 -9 -11 -11 -11 -16 -18 -17 -20 -18 -16 -17 -14 -13 -13 -13 -12 -10 -10 -12 -15
-1 -0 -1 -6 -9 -6 -0 -0 -2 -3 -2 -2 -1 -0 0 0 -2 -4 -4 -5 -5 -6 -7 -10 -10 -11 -13 -21 -20 -15 -16 -16 -17 -14 -13 -14 -12 -12 -12 -11 -12 -12 -13 -16
-1 0 0 -7 -6 -2 -2 -3 -3 -3 -2 -2 -1 0 -0 -1 -3 -4 -6 -6 -7 -9 -10 -10 -10 -11 -11 -14 -14 -15 -16 -16 -19 -16 -14 -16 -18 -17 -16 -15 -14 -14 -15 -19
-2 -2 -3 -3 -2 -4 -5 -5 -3 -2 -2 -1 -1 0 -0 -2 -2 -5 -7 -8 -9 -10 -11 -12 -13 -12 -12 -14 -15 -15 -16 -17 -18 -19 -18 -19 -22 -28 -29 -27 -26 -28 -27 -29
-1 -2 -2 -3 -5 -5 -4 -3 -2 -2 -1 -1 -1 0 0 -1 -2 -6 -8 -9 -11 -12 -13 -14 -14 -14 -14 -14 -14 -16 -17 -18 -18 -19 -17 -17 -19 -18 -16 -18 -18 -18 -19 -22
-1 -2 -4 -4 -4 -2 -2 -2 -2 -1 -1 -1 -1 0 -0 -1 -3 -7 -9 -10 -12 -13 -13 -15 -15 -15 -14 -15 -16 -17 -18 -18 -17 -17 -17 -16 -15 -14 -13 -14 -15 -15 -16 -16
-0 -2 -2 -2 -3 -3 -3 -2 -2 -2 -1 -1 -2 -1 0 -1 -3 -6 -10 -12 -14 -14 -14 -14 -15 -14 -15 -16 -16 -17 -18 -18 -17 -17 -16 -16 -15 -13 -12 -12 -13 -14 -14 -15
-5 -7 -8 -7 -8 -9 -7 -7 -3 -2 -1 -1 -2 -1 -1 -2 -4 -7 -11 -13 -15 -15 -14 -14 -15 -15 -15 -16 -16 -18 -19 -19 -20 -19 -17 -15 -13 -12 -12 -13 -13 -13 -14 -14
-7 -7 -6 -8 -8 -7 -6 -3 -2 -1 -1 -2 -2 -2 -2 -3 -5 -8 -11 -13 -15 -16 -15 -15 -15 -16 -17 -17 -17 -18 -18 -22 -25 -23 -21 -20 -16 -14 -13 -14 -13 -14 -14 -14
-5 -6 -6 -7 -7 -9 -9 -4 -2 -1 -2 -2 -2 -2 -3 -4 -6 -9 -11 -13 -15 -15 -15 -15 -15 -16 -17 -21 -22 -26 -28 -22 -27 -30 -24 -21 -17 -14 -14 -14 -14 -14 -15 -15
-7 -7 -7 -7 -7 -8 -9 -3 -2 -2 -2 -3 -3 -3 -4 -5 -7 -8 -11 -13 -15 -16 -15 -15 -15 -16 -18 -28 -28 -27 -26 -23 -26 -28 -25 -20 -17 -16 -15 -15 -15 -16 -16 -17
-7 -7 -7 -8 -8 -5 -4 -2 -2 -2 -2 -3 -3 -4 -5 -6 -6 -9 -12 -13 -16 -16 -16 -15 -15 -17 -27 -28 -26 -22 -18 -19 -21 -24 -24 -23 -22 -20 -18 -17 -17 -16 -17 -18
-6 -6 -7 -6 -6 -5 -2 -1 -1 -2 -2 -3 -4 -5 -5 -5 -6 -9 -11 -14 -16 -16 -15 -16 -20 -26 -28 -27 -21 -16 -16 -18 -22 -23 -25 -25 -23 -25 -22 -19 -19 -18 -18 -18
-2 -2 -2 -5 -6 -6 -3 -1 -1 -2 -2 -3 -4 -5 -5 -5 -7 -8 -10 -13 -15 -16 -16 -19 -23 -26 -28 -25 -20 -17 -17 -21 -23 -24 -24 -24 -22 -19 -19 -19 -19 -21 -20 -19
-8 -7 -3 -4 -5 -2 -1 -1 -1 -2 -2 -2 -4 -5 -5 -5 -6 -8 -10 -12 -13 -15 -17 -22 -24 -26 -25 -23 -21 -21 -21 -22 -24 -25 -24 -25 -23 -21 -22 -21 -20 -19 -20 -21
-1 -1 -2 -2 -1 -1 -1 -1 -2 -1 -2 -4 -4 -4 -5 -6 -7 -8 -10 -11 -13 -17 -21 -19 -20 -23 -22 -19 -20 -20 -21 -25 -26 -28 -28 -26 -26 -24 -21 -21 -21 -21 -22 -23
-1 -1 -1 -1 -1 -1 -1 -1 -1 -2 -3 -4 -5 -5 -5 -6 -7 -8 -8 -10 -14 -18 -15 -13 -18 -19 -16 -17 -18 -19 -22 -25 -28 -28 -29 -28 -27 -25 -24 -23 -23 -24 -24 -27
-1 -1 -1 -1 -1 -1 -2 -3 -3 -4 -4 -5 -5 -6 -6 -7 -7 -7 -10 -11 -12 -12 -12 -13 -15 -16 -15 -17 -17 -19 -22 -25 -28 -30 -29 -28 -27 -27 -27 -27 -28 -28 -29 -29
-2 -2 -2 -2 -3 -3 -3 -4 -4 -4 -5 -6 -6 -6 -7 -7 -7 -8 -10 -11 -10 -10 -11 -14 -14 -14 -14 -15 -16 -19 -22 -25 -27 -29 -28 -26 -28 -28 -29 -30 -30 -29 -29 -29
-4 -4 -4 -4 -5 -5 -4 -5 -5 -5 -6 -6 -6 -6 -7 -7 -8 -10 -11 -11 -11 -11 -12 -13 -13 -14 -14 -15 -17 -19 -21 -23 -28 -29 -28 -29 -29 -29 -30 -30 -29 -29 -29 -29
-4 -4 -4 -5 -5 -5 -5 -5 -5 -6 -6 -6 -7 -7 -8 -9 -10 -10 -10 -10 -11 -12 -13 -14 -14 -14 -14 -15 -16 -17 -21 -27 -29 -29 -29 -29 -30 -30 -30 -30 -29 -28 -28 -28
-4 -4 -5 -5 -5 -5 -5 -6 -7 -7 -8 -8 -8 -9 -9 -10 -10 -10 -10 -10 -11 -12 -13 -14 -14 -14 -15 -15 -16 -20 -26 -30 -31 -31 -30 -30 -30 -30 -30 -29 -28 -27 -27 -27

GFSNGP_850_dewp_156.txt.gz
Dewpoint
-4 -3 -4 -4 -4 -5 -5 -3 1 -1 -1 -3 -5 -5 -1 1 1 1 1 1 0 -1 -2 -5 -10 -13 -10 -10 -10 -11 -11 -11 -11 -11 -10 -10 -10 -12 -16 -26 -30 -34 -33 -32
-1 -4 -4 -4 -3 -5 -4 -4 -3 -3 -3 -5 -3 1 1 1 1 1 0 0 -0 -1 -3 -7 -11 -10 -9 -9 -10 -11 -11 -11 -11 -11 -11 -10 -10 -11 -13 -16 -19 -28 -29 -31
-1 -5 -4 -2 -3 -3 -5 -6 -6 -5 -6 -0 1 1 0 1 1 1 0 -0 -1 -2 -4 -8 -9 -9 -10 -10 -10 -11 -11 -11 -11 -12 -12 -11 -11 -12 -12 -12 -15 -21 -27 -24
1 -1 1 -4 -4 -5 -5 -5 -6 -7 -1 -1 -0 -1 -1 -1 -1 0 0 -0 -1 -3 -3 -7 -10 -9 -10 -10 -10 -10 -11 -13 -13 -13 -14 -13 -13 -13 -12 -11 -13 -16 -22 -26
2 0 -2 -3 -5 -7 -6 -5 -6 -2 -1 -1 -0 -1 -1 -1 -1 -1 -1 -1 -2 -3 -5 -9 -10 -10 -10 -11 -11 -13 -18 -20 -18 -18 -16 -15 -14 -14 -12 -11 -12 -14 -18 -26
1 1 1 -3 -6 -8 -6 -2 -2 -2 -2 -1 -1 -1 -2 -1 -1 -1 -1 -2 -2 -4 -6 -8 -8 -9 -11 -11 -12 -18 -22 -23 -18 -18 -15 -14 -13 -12 -12 -12 -13 -15 -19 -24
-0 -1 -2 -5 -8 -7 -1 -3 -2 -3 -3 -2 -1 -2 -1 -0 -0 -1 -2 -2 -4 -5 -6 -7 -8 -10 -11 -12 -17 -19 -19 -18 -17 -15 -16 -16 -15 -14 -13 -13 -14 -16 -22 -27
-1 -0 -1 -6 -6 -4 -4 -2 -3 -3 -2 -2 -2 -2 -1 -1 -1 -2 -3 -5 -5 -6 -6 -7 -11 -11 -13 -18 -19 -19 -18 -19 -18 -16 -17 -17 -20 -20 -18 -18 -20 -25 -29 -32
-2 -2 -5 -2 -3 -5 -3 -3 -2 -3 -2 -2 -2 -1 -1 -1 -2 -4 -4 -5 -7 -8 -8 -10 -11 -12 -12 -14 -16 -17 -17 -19 -19 -19 -19 -20 -24 -22 -23 -25 -24 -24 -26 -30
-2 -3 -3 -4 -3 -4 -4 -3 -3 -2 -2 -1 -2 -2 -1 -1 -3 -4 -4 -6 -8 -10 -10 -10 -12 -12 -12 -14 -16 -17 -17 -18 -19 -19 -18 -18 -19 -18 -17 -19 -19 -19 -20 -24
-1 -2 -4 -3 -3 -3 -2 -2 -2 -2 -2 -2 -2 -2 -1 -1 -2 -2 -5 -7 -9 -10 -11 -13 -13 -14 -13 -14 -15 -16 -17 -18 -18 -18 -18 -18 -18 -16 -15 -16 -17 -16 -17 -19
-1 -2 -2 -3 -3 -3 -3 -3 -3 -3 -2 -1 -1 -2 -1 0 -1 -3 -6 -8 -10 -12 -12 -13 -14 -15 -14 -14 -15 -16 -17 -18 -18 -18 -18 -18 -18 -15 -14 -14 -15 -14 -16 -16
-4 -6 -6 -6 -7 -7 -5 -6 -7 -4 -3 -2 -2 -1 -2 -1 -1 -3 -7 -9 -11 -12 -13 -13 -14 -15 -14 -15 -16 -16 -17 -18 -18 -19 -18 -18 -16 -14 -14 -14 -14 -14 -14 -15
-5 -6 -6 -7 -7 -8 -7 -8 -8 -3 -2 -2 -1 -2 -2 -0 -2 -4 -7 -9 -12 -13 -14 -14 -14 -15 -15 -16 -16 -17 -17 -18 -19 -20 -19 -18 -15 -14 -14 -14 -14 -14 -14 -15
-8 -8 -6 -6 -6 -6 -7 -7 -5 -2 -3 -1 -1 -2 -2 -1 -2 -4 -7 -12 -14 -14 -14 -14 -15 -15 -15 -16 -16 -16 -17 -18 -25 -26 -26 -24 -20 -15 -14 -14 -14 -15 -15 -15
-8 -7 -6 -6 -7 -7 -7 -7 -5 -4 -1 -1 -2 -2 -2 -2 -3 -5 -9 -11 -12 -14 -15 -15 -15 -15 -16 -16 -18 -19 -19 -23 -21 -26 -26 -23 -19 -17 -15 -15 -16 -16 -16 -17
-5 -6 -6 -6 -7 -7 -7 -8 -7 -6 -2 -1 -2 -2 -2 -3 -5 -6 -9 -11 -11 -12 -14 -15 -15 -15 -15 -16 -21 -27 -25 -22 -19 -24 -23 -20 -19 -18 -17 -18 -19 -18 -18 -18
-3 -4 -5 -6 -7 -7 -7 -5 -4 -3 -2 -2 -3 -3 -3 -4 -5 -6 -9 -11 -13 -15 -15 -15 -15 -15 -15 -20 -27 -26 -19 -16 -18 -22 -22 -20 -22 -24 -23 -21 -19 -18 -19 -20
-4 -2 -2 -3 -5 -5 -5 -6 -3 -2 -1 -2 -3 -4 -4 -5 -5 -6 -9 -12 -13 -15 -15 -15 -15 -16 -19 -25 -26 -22 -18 -16 -18 -22 -23 -24 -24 -24 -21 -20 -19 -19 -20 -21
-6 -6 -7 -7 -6 -3 -3 -4 -3 -1 -2 -3 -3 -4 -4 -4 -5 -6 -9 -10 -11 -13 -15 -15 -16 -20 -24 -26 -24 -20 -18 -19 -22 -23 -23 -23 -24 -23 -21 -20 -21 -21 -21 -21
-3 -2 -1 -2 -3 -3 -4 -4 -2 -1 -2 -3 -3 -2 -4 -5 -6 -7 -9 -11 -13 -14 -15 -16 -18 -23 -24 -24 -22 -21 -20 -20 -22 -24 -25 -25 -24 -23 -24 -23 -22 -22 -22 -23
-1 -1 -1 -1 -1 -1 -1 -1 -1 -2 -2 -2 -2 -4 -4 -5 -6 -8 -8 -9 -10 -11 -12 -17 -20 -20 -22 -21 -20 -20 -19 -20 -23 -26 -27 -27 -26 -26 -25 -24 -23 -24 -24 -26
-1 -1 -1 -1 -1 0 -1 -1 -1 -1 -2 -3 -4 -4 -4 -5 -6 -7 -8 -8 -9 -10 -15 -17 -15 -17 -18 -17 -17 -18 -18 -21 -24 -26 -28 -28 -27 -26 -26 -26 -27 -27 -28 -29
-2 -2 -1 -1 -1 -1 -2 -2 -3 -4 -4 -4 -5 -5 -5 -6 -7 -7 -7 -8 -9 -12 -13 -12 -13 -15 -15 -16 -16 -16 -18 -21 -23 -25 -27 -28 -28 -29 -29 -29 -29 -29 -29 -29
-3 -3 -3 -3 -3 -3 -4 -4 -4 -5 -5 -5 -5 -6 -6 -7 -7 -7 -8 -9 -10 -11 -10 -11 -13 -14 -14 -15 -15 -16 -17 -20 -21 -25 -29 -28 -28 -29 -30 -30 -30 -30 -29 -28
-4 -4 -5 -5 -5 -5 -4 -4 -5 -5 -6 -6 -6 -6 -7 -7 -7 -8 -8 -10 -11 -10 -11 -12 -13 -14 -14 -15 -15 -16 -17 -17 -23 -28 -30 -29 -29 -29 -30 -30 -30 -29 -28 -27
-5 -5 -4 -5 -5 -5 -5 -5 -5 -6 -6 -6 -6 -7 -7 -8 -8 -9 -10 -10 -10 -11 -12 -12 -13 -14 -14 -14 -15 -15 -16 -21 -27 -30 -30 -30 -30 -30 -30 -30 -29 -28 -27 -27

GFSNGP_850_dewp_159.txt.gz
Dewpoint
-1 -3 -4 -5 -4 -1 0 -0 1 -1 0 -2 -2 -1 -5 -5 -0 0 0 0 -0 -2 -2 -3 -3 -9 -12 -11 -10 -11 -11 -12 -12 -12 -12 -12 -12 -13 -15 -19 -24 -30 -30 -34
0 -1 -2 -3 -2 -4 -4 -4 -2 -3 -3 -5 -5 -2 1 0 0 -0 -1 -1 -0 -0 -1 -2 -4 -10 -10 -10 -10 -11 -11 -11 -12 -12 -13 -12 -12 -13 -13 -14 -19 -28 -30 -26
4 -2 -2 1 -3 -3 -5 -5 -7 -8 -10 -0 2 1 1 0 -0 -2 -2 -1 -1 -0 -0 -1 -6 -11 -9 -10 -10 -11 -11 -11 -12 -13 -13 -12 -12 -13 -13 -13 -16 -24 -29 -25
4 2 4 -0 -5 -6 -5 -7 -8 -7 -3 -0 0 0 -0 -2 -3 -3 -1 -1 -0 -1 -2 -4 -9 -9 -9 -10 -10 -11 -11 -12 -13 -14 -14 -13 -13 -14 -13 -13 -16 -21 -27 -29
3 1 -2 -4 -5 -6 -5 -6 -7 -6 -3 -1 -1 -1 -1 -1 -2 -2 -2 -1 -0 -1 -3 -5 -7 -8 -10 -10 -10 -10 -11 -12 -17 -16 -16 -15 -15 -15 -14 -14 -16 -21 -25 -29
1 1 0 -3 -6 -8 -7 -3 -4 -2 -1 -0 -1 -0 -2 -3 -2 -2 -2 -1 -1 -2 -3 -6 -9 -10 -10 -10 -10 -12 -17 -22 -21 -18 -16 -15 -14 -14 -14 -15 -17 -19 -25 -30
2 2 -1 -5 -8 -6 -2 -3 -2 -2 -2 -0 -1 -3 -4 -3 -2 -2 -1 -1 -2 -3 -5 -6 -8 -9 -9 -10 -12 -14 -21 -21 -19 -18 -17 -16 -15 -15 -14 -14 -16 -21 -29 -30
2 2 1 -6 -7 -4 -5 -4 -3 -2 -2 -1 -2 -3 -2 -2 -1 -1 -1 -2 -2 -4 -5 -7 -7 -8 -10 -12 -13 -19 -19 -19 -17 -17 -18 -18 -18 -17 -17 -18 -19 -26 -28 -32
-1 -1 -5 -5 -5 -5 -4 -2 -2 -3 -3 -3 -2 -2 -2 -2 -2 -1 -2 -3 -4 -5 -6 -7 -7 -10 -12 -15 -20 -19 -18 -19 -18 -17 -18 -20 -25 -23 -22 -23 -21 -22 -25 -31
-3 -4 -5 -7 -4 -4 -5 -4 -2 -3 -3 -3 -3 -3 -3 -2 -1 -2 -3 -3 -4 -6 -6 -7 -9 -11 -13 -14 -16 -18 -18 -19 -19 -20 -19 -19 -19 -17 -16 -18 -18 -19 -21 -24
-2 -3 -3 -3 -4 -3 -4 -4 -4 -3 -3 -3 -2 -3 -3 -2 -1 -2 -3 -4 -4 -6 -8 -9 -10 -12 -12 -13 -14 -17 -17 -18 -19 -19 -18 -18 -17 -16 -14 -15 -16 -16 -18 -19
-1 -3 -3 -3 -3 -2 -2 -2 -2 -2 -2 -2 -2 -3 -2 -2 -2 -2 -2 -4 -5 -7 -9 -10 -11 -12 -12 -12 -14 -15 -16 -18 -19 -19 -18 -17 -17 -16 -14 -14 -15 -16 -17 -17
-4 -6 -3 -6 -4 -3 -4 -4 -3 -4 -5 -4 -3 -2 -1 -2 -1 -1 -2 -4 -6 -7 -9 -11 -12 -13 -13 -14 -14 -15 -16 -17 -18 -18 -17 -17 -17 -17 -14 -14 -14 -15 -15 -15
-4 -5 -5 -6 -7 -7 -7 -7 -6 -7 -7 -4 -2 -3 -2 -1 -1 -1 -1 -3 -6 -8 -10 -12 -13 -14 -14 -14 -15 -15 -16 -17 -18 -18 -18 -17 -16 -15 -14 -14 -14 -15 -14 -15
-6 -6 -6 -7 -7 -7 -7 -7 -7 -7 -7 -5 -2 -2 -1 -2 -1 -1 -1 -4 -8 -9 -11 -13 -14 -14 -14 -15 -15 -16 -17 -17 -17 -18 -19 -18 -17 -15 -14 -13 -14 -14 -15 -16
-8 -8 -7 -7 -7 -6 -6 -6 -6 -6 -6 -5 -2 -2 -1 -2 -2 -1 -2 -5 -8 -10 -12 -13 -14 -14 -14 -15 -16 -16 -16 -16 -17 -21 -22 -23 -20 -16 -15 -15 -15 -15 -16 -17
-6 -5 -7 -6 -7 -7 -6 -7 -7 -7 -7 -4 -2 -2 -1 -2 -1 -2 -3 -6 -8 -11 -13 -14 -14 -15 -15 -15 -16 -17 -17 -17 -20 -21 -23 -23 -20 -19 -17 -16 -17 -18 -18 -18
-6 -5 -4 -3 -3 -4 -4 -6 -7 -7 -6 -6 -2 -1 -2 -2 -2 -3 -5 -8 -12 -13 -12 -13 -15 -15 -15 -15 -15 -17 -23 -24 -23 -19 -22 -22 -20 -21 -20 -20 -21 -20 -19 -20
-1 -3 -6 -7 -5 -2 -3 -4 -6 -6 -5 -4 -2 -2 -2 -2 -2 -3 -5 -7 -12 -13 -12 -15 -15 -15 -15 -15 -16 -22 -25 -22 -18 -19 -20 -21 -22 -23 -24 -22 -20 -19 -20 -21
-8 -7 -8 -8 -5 -5 -6 -3 -2 -4 -5 -3 -2 -2 -2 -3 -3 -4 -4 -8 -11 -10 -13 -15 -15 -15 -14 -16 -20 -25 -22 -19 -18 -19 -21 -22 -23 -23 -22 -21 -20 -21 -21 -21
-7 -6 -4 -2 -2 -2 -3 -4 -3 -2 -3 -2 -2 -3 -3 -4 -4 -3 -6 -10 -10 -11 -14 -15 -15 -15 -17 -23 -25 -23 -20 -20 -20 -19 -21 -22 -24 -24 -24 -23 -23 -22 -22 -22
-3 -2 -1 -1 -2 -1 -2 -3 -3 -2 -2 -1 -1 -1 -3 -3 -3 -6 -7 -7 -8 -13 -15 -14 -14 -15 -20 -23 -24 -22 -20 -20 -19 -21 -23 -25 -25 -25 -25 -25 -24 -24 -25 -25
-2 -1 -1 -1 -2 -1 -0 -1 -2 -1 0 -0 -2 -2 -2 -4 -5 -6 -7 -9 -11 -10 -11 -10 -11 -17 -21 -22 -22 -20 -19 -19 -19 -23 -25 -26 -26 -27 -27 -26 -26 -27 -28 -29
-4 -3 -2 -2 -2 -1 -1 -1 -1 -2 -2 -2 -2 -3 -4 -4 -5 -6 -7 -7 -10 -10 -9 -10 -16 -16 -17 -19 -17 -17 -18 -18 -20 -22 -23 -24 -27 -28 -28 -29 -29 -29 -30 -30
-4 -4 -3 -3 -2 -2 -3 -3 -3 -3 -3 -4 -4 -4 -5 -5 -6 -6 -7 -7 -8 -9 -11 -14 -12 -13 -15 -15 -16 -16 -16 -17 -19 -20 -22 -27 -29 -29 -29 -30 -30 -30 -30 -29
-4 -4 -5 -4 -4 -4 -4 -4 -4 -5 -5 -5 -5 -5 -6 -6 -6 -7 -7 -8 -8 -10 -11 -11 -11 -13 -14 -15 -15 -15 -16 -16 -16 -20 -26 -30 -30 -30 -30 -30 -30 -30 -30 -28
-4 -5 -5 -5 -5 -5 -5 -5 -5 -5 -6 -5 -6 -6 -6 -7 -7 -7 -8 -8 -10 -10 -11 -11 -12 -13 -14 -14 -14 -15 -15 -15 -18 -25 -30 -31 -31 -30 -30 -30 -30 -30 -29 -27

GFSNGP_850_dewp_162.txt.gz
Dewpoint
4 4 3 3 -2 -1 0 -0 2 0 1 -1 -1 1 1 0 -3 -5 -3 -1 -1 -1 -2 -2 -3 -4 -9 -12 -12 -11 -12 -13 -13 -13 -13 -13 -14 -16 -16 -17 -23 -29 -28 -29
4 3 4 4 2 -1 -3 -2 -1 -3 -2 -4 -4 -2 -3 -3 -4 -2 -2 -2 -2 -1 -1 -2 -3 -4 -7 -10 -10 -10 -11 -12 -12 -13 -13 -13 -13 -15 -15 -16 -21 -28 -30 -28
4 0 2 5 4 3 -4 -4 -4 -3 -6 -5 -1 -1 -3 -3 -1 -2 -4 -4 -4 -3 -1 -2 -3 -3 -6 -10 -10 -10 -11 -12 -12 -13 -13 -13 -14 -14 -14 -15 -19 -26 -30 -27
4 4 4 0 -2 -4 -4 -7 -7 -10 -7 -3 -4 -3 -3 -2 -2 -4 -5 -4 -3 -1 -1 -1 -1 -3 -9 -9 -10 -10 -11 -12 -12 -13 -13 -14 -14 -14 -14 -15 -19 -25 -30 -28
4 4 1 -2 -4 -4 -4 -4 -6 -7 -7 -3 -0 -0 -0 -1 -4 -5 -5 -3 -1 -0 -1 -1 -2 -5 -10 -9 -10 -10 -11 -11 -12 -14 -14 -15 -15 -15 -14 -15 -19 -25 -31 -31
3 4 2 -2 -6 -7 -8 -4 -8 -7 -4 -0 -1 0 -1 -3 -3 -3 -2 -1 -1 -0 -1 -3 -4 -8 -8 -10 -10 -10 -11 -11 -13 -16 -16 -16 -15 -15 -16 -16 -19 -26 -32 -32
3 4 1 -4 -7 -7 -4 -4 -5 -3 -2 -1 -1 -2 -4 -4 -4 -3 -2 -2 -1 -1 -2 -3 -5 -7 -8 -10 -10 -10 -11 -17 -20 -18 -16 -15 -15 -15 -16 -18 -20 -27 -30 -31
3 4 3 -5 -6 -6 -5 -6 -4 -3 -2 -1 -2 -4 -4 -3 -3 -3 -2 -2 -1 -2 -3 -5 -7 -9 -9 -10 -10 -11 -16 -20 -19 -18 -18 -17 -17 -17 -19 -21 -24 -24 -27 -28
1 1 -3 -6 -8 -8 -8 -6 -5 -5 -3 -2 -3 -3 -3 -3 -3 -3 -2 -2 -2 -2 -4 -6 -7 -8 -9 -9 -11 -11 -19 -18 -18 -17 -18 -20 -24 -22 -21 -22 -20 -21 -25 -28
-1 -3 -5 -7 -6 -5 -5 -5 -4 -4 -3 -3 -3 -3 -3 -3 -3 -2 -2 -2 -3 -3 -4 -6 -7 -8 -9 -11 -13 -18 -19 -18 -18 -17 -19 -20 -20 -18 -17 -18 -18 -19 -21 -23
-1 -3 -3 -5 -6 -5 -4 -3 -3 -3 -4 -4 -4 -3 -3 -4 -3 -3 -2 -2 -3 -3 -4 -6 -7 -8 -11 -13 -16 -17 -18 -19 -20 -19 -19 -19 -17 -16 -16 -15 -16 -17 -18 -19
-1 -4 -2 -3 -2 -3 -3 -4 -3 -3 -3 -3 -2 -2 -3 -3 -3 -2 -2 -2 -3 -4 -5 -6 -7 -10 -11 -13 -14 -16 -18 -18 -19 -19 -19 -18 -18 -17 -15 -14 -15 -16 -17 -17
-5 -8 -4 -5 -5 -3 -3 -2 -3 -3 -3 -3 -4 -4 -2 -2 -2 -2 -2 -2 -3 -4 -5 -7 -8 -10 -12 -12 -13 -15 -16 -17 -18 -19 -18 -18 -18 -17 -16 -15 -15 -17 -16 -15
-6 -5 -5 -5 -5 -6 -5 -5 -4 -3 -3 -3 -4 -4 -2 -2 -1 -2 -2 -2 -2 -4 -5 -8 -9 -11 -12 -12 -12 -14 -15 -16 -18 -18 -18 -18 -17 -16 -14 -14 -15 -15 -14 -15
-7 -7 -5 -6 -6 -8 -9 -8 -7 -8 -7 -7 -7 -7 -4 -2 -2 -2 -2 -2 -2 -4 -6 -8 -10 -12 -13 -13 -13 -14 -15 -16 -17 -17 -17 -17 -17 -15 -14 -14 -15 -15 -14 -15
-8 -8 -7 -6 -7 -6 -6 -6 -5 -6 -6 -7 -7 -7 -5 -2 -2 -1 -1 -1 -2 -4 -7 -9 -11 -13 -14 -14 -14 -15 -16 -17 -17 -17 -17 -20 -20 -17 -17 -15 -15 -15 -15 -15
-6 -6 -7 -7 -7 -8 -8 -7 -7 -6 -6 -7 -7 -7 -4 -1 -1 -1 -1 -2 -3 -4 -7 -9 -12 -13 -14 -14 -15 -15 -16 -16 -16 -17 -18 -22 -23 -22 -19 -17 -16 -16 -16 -17
-6 -5 -5 -5 -4 -3 -3 -2 -4 -5 -5 -7 -7 -7 -4 -1 -1 -2 -1 -2 -4 -6 -9 -11 -13 -14 -14 -15 -15 -16 -16 -16 -17 -18 -22 -22 -23 -21 -21 -19 -18 -19 -19 -19
-2 -1 -2 -4 -6 -5 -6 -6 -4 -3 -5 -7 -6 -6 -4 -1 -1 -2 -2 -1 -4 -6 -10 -12 -12 -14 -14 -15 -15 -15 -16 -18 -20 -22 -19 -21 -21 -21 -22 -22 -21 -20 -19 -20
-6 -6 -4 -3 -2 -2 -2 -2 -3 -5 -3 -5 -6 -4 -3 -1 -2 -2 -2 -4 -4 -5 -11 -10 -12 -14 -15 -15 -15 -15 -18 -23 -21 -18 -19 -20 -22 -23 -23 -22 -20 -20 -20 -21
-8 -7 -3 -2 -2 -2 -2 -2 -3 -3 -4 -2 -5 -4 -2 -2 -2 -2 -4 -4 -4 -7 -10 -9 -11 -14 -15 -15 -14 -16 -22 -20 -18 -18 -20 -21 -22 -23 -24 -22 -21 -22 -22 -22
-5 -6 -3 -2 -2 -2 -1 -1 -2 -2 -2 -2 -3 -2 -2 -2 -2 -3 -3 -3 -5 -10 -10 -10 -14 -15 -15 -14 -18 -22 -21 -18 -18 -20 -19 -21 -22 -24 -23 -23 -24 -23 -23 -24
-4 -3 -2 -2 -1 -2 -1 -2 -1 -2 -3 -3 -2 -1 -1 -1 -3 -3 -4 -6 -10 -8 -10 -14 -12 -12 -14 -16 -21 -22 -20 -19 -20 -19 -20 -22 -24 -24 -24 -26 -26 -25 -26 -28
-4 -3 -4 -3 -2 -2 -2 -2 -2 -2 -2 -3 -2 -2 -2 -3 -4 -4 -6 -6 -7 -8 -11 -11 -11 -11 -11 -18 -21 -21 -20 -19 -19 -19 -22 -23 -23 -24 -27 -28 -29 -29 -30 -30
-4 -4 -4 -3 -3 -3 -3 -3 -3 -3 -3 -3 -3 -3 -3 -4 -4 -5 -6 -6 -8 -10 -10 -10 -9 -11 -16 -19 -20 -18 -18 -18 -18 -19 -21 -19 -23 -28 -29 -30 -30 -30 -30 -30
-4 -4 -4 -4 -4 -4 -4 -4 -4 -4 -4 -4 -4 -4 -5 -5 -5 -5 -6 -7 -8 -9 -9 -10 -12 -13 -14 -16 -16 -17 -17 -16 -17 -17 -17 -23 -28 -30 -30 -30 -30 -31 -30 -30
-4 -5 -5 -5 -5 -5 -5 -5 -5 -5 -5 -5 -5 -5 -6 -6 -6 -7 -7 -7 -8 -9 -10 -11 -11 -12 -14 -15 -15 -15 -15 -16 -15 -16 -22 -28 -31 -31 -31 -31 -31 -30 -30 -29

GFSNGP_850_dewp_165.txt.gz
Dewpoint
4 5 4 4 3 2 2 -0 2 2 -1 -2 -2 -1 1 0 -1 -2 -2 -2 -2 -2 -2 -3 -3 -4 -5 -8 -11 -12 -12 -12 -14 -14 -15 -16 -17 -18 -19 -20 -27 -28 -25 -24
3 1 3 4 4 3 2 1 -1 -1 -1 -3 -3 -1 1 0 -0 -1 -1 -2 -2 -1 -1 -2 -3 -4 -5 -7 -11 -11 -11 -12 -13 -14 -14 -15 -16 -17 -17 -19 -24 -28 -26 -23
2 -1 1 4 4 3 2 0 -2 -0 -3 -4 -3 -1 -0 0 -0 -1 -5 -4 -3 -3 -2 -2 -2 -3 -4 -6 -10 -10 -10 -12 -12 -14 -14 -15 -15 -16 -16 -17 -22 -28 -26 -23
3 2 4 -1 -2 -0 1 1 -3 -6 -6 -6 -6 -7 -5 -3 -1 -2 -4 -4 -6 -5 -4 -2 -2 -3 -4 -7 -10 -9 -10 -11 -12 -13 -14 -14 -14 -15 -15 -17 -21 -28 -29 -26
3 2 1 0 -2 -3 0 -1 -0 -2 -5 -8 -2 -1 -2 -4 -5 -4 -5 -6 -5 -3 -2 -1 -1 -2 -3 -7 -10 -9 -10 -12 -12 -13 -15 -15 -15 -16 -15 -17 -21 -28 -31 -29
4 4 2 -2 -5 -6 -5 -1 -7 -6 -5 -3 -1 -1 1 -2 -2 -4 -5 -4 -3 -2 -1 -1 -1 -2 -3 -9 -9 -10 -11 -12 -12 -13 -16 -16 -16 -16 -15 -17 -20 -29 -32 -30
3 3 2 -2 -5 -7 -2 -4 -6 -6 -4 -1 -1 -2 -4 -2 -3 -4 -4 -3 -2 -1 -1 -1 -2 -2 -6 -9 -9 -10 -11 -11 -11 -14 -17 -16 -15 -15 -15 -17 -21 -27 -29 -29
3 4 3 -3 -4 -2 -4 -7 -5 -5 -4 -1 -2 -3 -4 -3 -5 -4 -4 -4 -3 -1 -1 -2 -3 -5 -8 -8 -10 -10 -10 -11 -14 -18 -16 -15 -15 -16 -17 -20 -24 -24 -27 -28
2 2 -1 -2 -4 -5 -8 -8 -7 -7 -6 -3 -3 -4 -5 -5 -4 -5 -4 -3 -2 -1 -2 -3 -4 -6 -7 -9 -10 -10 -10 -14 -19 -17 -16 -16 -17 -19 -20 -22 -22 -22 -25 -27
-0 -1 -2 -3 -2 -3 -4 -7 -6 -5 -4 -2 -3 -4 -4 -4 -5 -4 -4 -3 -2 -2 -2 -4 -5 -7 -8 -9 -9 -10 -12 -18 -18 -17 -17 -19 -22 -21 -20 -20 -20 -20 -22 -25
-1 -2 -2 -2 -3 -3 -3 -4 -3 -4 -3 -3 -3 -3 -3 -3 -4 -4 -4 -2 -2 -2 -3 -4 -5 -7 -8 -9 -10 -11 -15 -18 -17 -16 -18 -20 -20 -19 -18 -18 -18 -18 -20 -22
-0 -3 -3 -4 -4 -2 -3 -4 -3 -2 -2 -2 -2 -3 -2 -2 -3 -3 -3 -2 -2 -3 -3 -4 -6 -7 -8 -9 -11 -14 -18 -18 -18 -17 -18 -19 -19 -18 -16 -14 -15 -17 -17 -19
-5 -6 -5 -4 -5 -5 -4 -3 -2 -2 -3 -3 -3 -3 -2 -2 -3 -3 -3 -3 -2 -3 -3 -4 -6 -7 -8 -11 -13 -16 -18 -19 -20 -19 -19 -20 -19 -18 -18 -15 -14 -15 -16 -16
-8 -8 -5 -6 -7 -6 -6 -6 -2 -2 -2 -2 -2 -3 -3 -2 -1 -2 -3 -3 -2 -3 -4 -4 -6 -7 -9 -11 -13 -14 -16 -17 -19 -20 -20 -19 -19 -18 -17 -15 -16 -17 -15 -14
-9 -7 -7 -7 -6 -6 -6 -7 -7 -8 -8 -7 -6 -3 -3 -4 -3 -2 -2 -2 -2 -3 -3 -5 -7 -7 -9 -11 -12 -11 -14 -15 -17 -18 -19 -18 -17 -17 -16 -14 -14 -14 -14 -15
-8 -7 -7 -7 -7 -7 -7 -6 -6 -7 -7 -7 -7 -7 -7 -7 -7 -3 -1 -1 -2 -2 -3 -4 -6 -6 -10 -11 -11 -10 -13 -15 -16 -17 -17 -17 -16 -16 -15 -14 -14 -14 -14 -15
-5 -5 -6 -6 -6 -6 -6 -6 -6 -7 -7 -7 -6 -7 -7 -6 -6 -3 -1 -1 -2 -2 -2 -3 -5 -9 -11 -13 -12 -11 -14 -15 -16 -17 -17 -17 -17 -17 -16 -15 -15 -15 -15 -15
-5 -5 -5 -4 -3 -3 -3 -3 -3 -4 -3 -5 -6 -7 -6 -6 -6 -4 -1 -1 -2 -3 -3 -5 -7 -11 -13 -13 -13 -14 -15 -15 -16 -17 -16 -16 -17 -18 -18 -17 -16 -16 -17 -18
-3 -4 -5 -5 -5 -4 -4 -3 -2 -3 -6 -3 -3 -4 -7 -6 -5 -2 -1 -1 -2 -2 -3 -6 -9 -12 -13 -12 -14 -14 -15 -16 -16 -16 -16 -18 -20 -20 -19 -19 -19 -19 -21 -20
-5 -6 -7 -5 -7 -3 -3 -3 -2 -2 -3 -5 -3 -5 -6 -5 -3 -1 -1 -2 -2 -2 -3 -9 -11 -13 -12 -14 -14 -15 -15 -16 -16 -16 -18 -20 -20 -20 -21 -22 -23 -23 -21 -21
-6 -7 -7 -5 -6 -3 -2 -1 -2 -2 -3 -3 -3 -3 -5 -5 -2 -1 -1 -2 -3 -3 -4 -7 -11 -9 -14 -13 -14 -15 -15 -15 -17 -21 -20 -19 -20 -21 -23 -24 -23 -22 -21 -23
-5 -5 -4 -3 -3 -2 -2 -2 -3 -2 -2 -2 -2 -3 -4 -3 -2 -2 -3 -3 -4 -4 -5 -9 -10 -11 -13 -11 -14 -14 -15 -18 -22 -19 -18 -19 -20 -22 -23 -24 -23 -22 -23 -24
-5 -4 -4 -4 -3 -2 -3 -3 -3 -2 -2 -3 -3 -3 -3 -3 -2 -3 -3 -4 -4 -4 -7 -10 -9 -9 -11 -14 -13 -14 -18 -22 -19 -17 -19 -19 -20 -22 -24 -23 -23 -24 -25 -25
-5 -4 -4 -4 -3 -3 -3 -3 -3 -3 -3 -3 -2 -3 -2 -2 -3 -3 -3 -4 -4 -7 -11 -9 -9 -13 -14 -14 -13 -17 -21 -19 -17 -18 -19 -19 -22 -23 -23 -23 -26 -27 -28 -28
-4 -4 -4 -5 -4 -4 -4 -4 -3 -3 -3 -3 -3 -4 -3 -3 -3 -4 -4 -5 -9 -9 -8 -11 -13 -12 -11 -10 -12 -18 -20 -19 -19 -19 -19 -21 -22 -20 -23 -28 -29 -29 -30 -30
-5 -4 -4 -4 -5 -4 -5 -4 -4 -4 -4 -4 -4 -4 -4 -4 -4 -5 -6 -7 -7 -8 -10 -11 -11 -10 -10 -11 -17 -20 -19 -18 -18 -18 -19 -19 -18 -23 -28 -30 -30 -30 -30 -30
-4 -4 -4 -5 -5 -5 -5 -5 -5 -5 -5 -5 -5 -5 -5 -5 -5 -6 -6 -7 -8 -10 -10 -9 -10 -10 -13 -15 -17 -17 -17 -17 -17 -18 -16 -17 -23 -29 -31 -31 -30 -30 -30 -30